| time (UTC) | temp F | wind direction | speed MPH | gust MPH | rain 1hr in | rain 24hr in | rain mn in | humidity % | barometer mb |
| 20260906053603 | 65 | 181 | 0.0 | 3.0 | 0.00 | 0.05 | 0.00 | 76 | 1017.8 |
| 20260906053403 | 65 | 184 | 0.0 | 3.0 | 0.00 | 0.05 | 0.00 | 76 | 1017.8 |
| 20260906053203 | 65 | 184 | 0.0 | 3.0 | 0.00 | 0.05 | 0.00 | 76 | 1017.8 |
| 20260906053003 | 65 | 184 | 0.0 | 3.0 | 0.00 | 0.05 | 0.00 | 76 | 1017.8 |
| 20260906052824 | 65 | 186 | 0.0 | 3.0 | 0.00 | 0.05 | 0.00 | 76 | 1017.8 |
| 20260906052624 | 65 | 189 | 0.0 | 3.0 | 0.00 | 0.05 | 0.00 | 76 | 1017.8 |
| 20260906052403 | 65 | 191 | 0.0 | 3.0 | 0.00 | 0.05 | 0.00 | 76 | 1017.8 |
| 20260906052224 | 65 | 191 | 0.0 | 3.0 | 0.00 | 0.05 | 0.00 | 76 | 1017.7 |
| 20260906052003 | 65 | 180 | 1.0 | 5.0 | 0.00 | 0.05 | 0.00 | 76 | 1017.7 |
| 20260906051824 | 65 | 182 | 1.0 | 5.0 | 0.00 | 0.06 | 0.00 | 76 | 1017.7 |
| 20260906051603 | 65 | 182 | 1.0 | 5.0 | 0.00 | 0.06 | 0.00 | 76 | 1017.7 |
| 20260906051403 | 65 | 182 | 2.0 | 5.0 | 0.00 | 0.06 | 0.00 | 76 | 1017.7 |
| 20260906051224 | 65 | 180 | 2.0 | 5.0 | 0.00 | 0.06 | 0.00 | 75 | 1017.7 |
| 20260906051003 | 65 | 180 | 2.0 | 6.0 | 0.00 | 0.06 | 0.00 | 75 | 1017.6 |
| 20260906050824 | 65 | 178 | 2.0 | 6.0 | 0.00 | 0.06 | 0.00 | 75 | 1017.6 |
| 20260906050603 | 65 | 177 | 1.0 | 6.0 | 0.00 | 0.06 | 0.00 | 76 | 1017.6 |
| 20260906050424 | 66 | 176 | 1.0 | 6.0 | 0.00 | 0.06 | 0.00 | 76 | 1017.5 |
| 20260906050203 | 66 | 177 | 1.0 | 6.0 | 0.00 | 0.06 | 0.00 | 76 | 1017.5 |
| 20260906050003 | 66 | 173 | 1.0 | 5.0 | 0.00 | 0.07 | 0.00 | 76 | 1017.5 |
| 20260906045824 | 66 | 178 | 1.0 | 5.0 | 0.00 | 0.08 | 0.00 | 76 | 1017.5 |
| 20260906045603 | 66 | 180 | 1.0 | 6.0 | 0.00 | 0.10 | 0.00 | 76 | 1017.5 |
| 20260906045403 | 66 | 180 | 1.0 | 6.0 | 0.00 | 0.12 | 0.00 | 76 | 1017.5 |
| 20260906045224 | 66 | 177 | 1.0 | 7.0 | 0.00 | 0.13 | 0.00 | 76 | 1017.5 |
| 20260906045003 | 66 | 179 | 2.0 | 9.0 | 0.00 | 0.14 | 0.00 | 76 | 1017.5 |
| 20260906044803 | 66 | 178 | 2.0 | 9.0 | 0.00 | 0.14 | 0.00 | 76 | 1017.4 |
| 20260906044603 | 66 | 179 | 3.0 | 9.0 | 0.00 | 0.16 | 0.00 | 76 | 1017.4 |
| 20260906044403 | 66 | 180 | 4.0 | 11.0 | 0.00 | 0.16 | 0.00 | 76 | 1017.3 |
| 20260906044224 | 66 | 180 | 4.0 | 11.0 | 0.00 | 0.16 | 0.00 | 76 | 1017.3 |
| 20260906044024 | 66 | 182 | 4.0 | 11.0 | 0.00 | 0.16 | 0.00 | 76 | 1017.3 |
| 20260906043803 | 66 | 184 | 4.0 | 11.0 | 0.00 | 0.16 | 0.00 | 76 | 1017.3 |
| 20260906043603 | 66 | 185 | 3.0 | 11.0 | 0.00 | 0.16 | 0.00 | 76 | 1017.3 |
| 20260906043403 | 66 | 183 | 3.0 | 10.0 | 0.00 | 0.16 | 0.00 | 76 | 1017.3 |
| 20260906043203 | 66 | 185 | 3.0 | 10.0 | 0.00 | 0.17 | 0.00 | 76 | 1017.3 |
| 20260906043024 | 66 | 184 | 3.0 | 7.0 | 0.00 | 0.17 | 0.00 | 76 | 1017.3 |
| 20260906042803 | 66 | 182 | 3.0 | 7.0 | 0.00 | 0.18 | 0.00 | 76 | 1017.4 |
| 20260906042624 | 66 | 182 | 3.0 | 7.0 | 0.00 | 0.18 | 0.00 | 76 | 1017.4 |
| 20260906042403 | 66 | 182 | 3.0 | 6.0 | 0.00 | 0.18 | 0.00 | 76 | 1017.4 |
| 20260906042203 | 66 | 182 | 3.0 | 6.0 | 0.00 | 0.18 | 0.00 | 76 | 1017.4 |
| 20260906042003 | 66 | 180 | 3.0 | 6.0 | 0.00 | 0.18 | 0.00 | 76 | 1017.5 |
| 20260906041824 | 66 | 177 | 3.0 | 8.0 | 0.00 | 0.18 | 0.00 | 76 | 1017.5 |
| 20260906041603 | 66 | 175 | 3.0 | 8.0 | 0.00 | 0.18 | 0.00 | 76 | 1017.5 |
| 20260906041424 | 67 | 178 | 3.0 | 8.0 | 0.00 | 0.18 | 0.00 | 76 | 1017.5 |
| 20260906041203 | 67 | 179 | 3.0 | 8.0 | 0.00 | 0.18 | 0.00 | 77 | 1017.5 |
| 20260906041024 | 67 | 181 | 3.0 | 8.0 | 0.00 | 0.18 | 0.00 | 76 | 1017.5 |
| 20260906040803 | 67 | 184 | 3.0 | 8.0 | 0.00 | 0.18 | 0.00 | 77 | 1017.4 |
| 20260906040624 | 67 | 183 | 4.0 | 8.0 | 0.00 | 0.18 | 0.00 | 77 | 1017.4 |
| 20260906040424 | 67 | 181 | 3.0 | 8.0 | 0.00 | 0.18 | 0.00 | 76 | 1017.4 |
| 20260906040203 | 67 | 180 | 2.0 | 8.0 | 0.00 | 0.18 | 0.00 | 77 | 1017.4 |
| 20260906040004 | 67 | 178 | 2.0 | 8.0 | 0.00 | 0.18 | 0.00 | 77 | 1017.3 |
| 20260906035803 | 67 | 180 | 2.0 | 8.0 | 0.00 | 0.18 | 0.18 | 77 | 1017.2 |
| 20260906035603 | 67 | 184 | 2.0 | 8.0 | 0.00 | 0.18 | 0.18 | 77 | 1017.2 |
| 20260906035403 | 67 | 183 | 2.0 | 8.0 | 0.00 | 0.18 | 0.18 | 77 | 1017.2 |
| 20260906035203 | 67 | 173 | 2.0 | 8.0 | 0.00 | 0.18 | 0.18 | 77 | 1017.2 |
| 20260906035024 | 67 | 172 | 3.0 | 8.0 | 0.00 | 0.18 | 0.18 | 77 | 1017.2 |
| 20260906034824 | 67 | 170 | 3.0 | 8.0 | 0.00 | 0.18 | 0.18 | 77 | 1017.2 |
| 20260906034624 | 67 | 166 | 3.0 | 7.0 | 0.00 | 0.18 | 0.18 | 78 | 1017.3 |
| 20260906034403 | 67 | 168 | 3.0 | 7.0 | 0.00 | 0.18 | 0.18 | 78 | 1017.2 |
| 20260906034203 | 67 | 173 | 2.0 | 7.0 | 0.00 | 0.18 | 0.18 | 78 | 1017.2 |
| 20260906034003 | 67 | 173 | 2.0 | 5.0 | 0.00 | 0.18 | 0.18 | 78 | 1017.2 |
| 20260906033803 | 67 | 177 | 2.0 | 5.0 | 0.00 | 0.18 | 0.18 | 79 | 1017.1 |
| 20260906033603 | 67 | 178 | 2.0 | 5.0 | 0.00 | 0.18 | 0.18 | 79 | 1017.2 |
| 20260906033424 | 67 | 176 | 2.0 | 5.0 | 0.00 | 0.18 | 0.18 | 79 | 1017.1 |
| 20260906033203 | 67 | 177 | 2.0 | 5.0 | 0.00 | 0.18 | 0.18 | 79 | 1017.0 |
| 20260906033003 | 67 | 179 | 1.0 | 4.0 | 0.00 | 0.18 | 0.18 | 80 | 1017.1 |
| 20260906032803 | 67 | 175 | 1.0 | 4.0 | 0.00 | 0.18 | 0.18 | 80 | 1017.1 |
| 20260906032603 | 67 | 175 | 1.0 | 3.0 | 0.00 | 0.18 | 0.18 | 80 | 1017.1 |
| 20260906032424 | 67 | 175 | 1.0 | 3.0 | 0.00 | 0.18 | 0.18 | 80 | 1017.1 |
| 20260906032203 | 67 | 172 | 0.0 | 3.0 | 0.00 | 0.18 | 0.18 | 80 | 1017.0 |
| 20260906032003 | 67 | 163 | 0.0 | 3.0 | 0.00 | 0.18 | 0.18 | 80 | 1017.0 |
| 20260906031803 | 67 | 0 | 0.0 | 0.0 | 0.00 | 0.18 | 0.18 | 80 | 1017.0 |
| 20260906031603 | 67 | 0 | 0.0 | 0.0 | 0.00 | 0.18 | 0.18 | 80 | 1017.0 |
| 20260906031403 | 68 | 0 | 0.0 | 0.0 | 0.00 | 0.18 | 0.18 | 80 | 1017.0 |
| 20260906031203 | 68 | 0 | 0.0 | 0.0 | 0.00 | 0.18 | 0.18 | 80 | 1017.0 |
| 20260906031003 | 68 | 0 | 0.0 | 0.0 | 0.00 | 0.18 | 0.18 | 80 | 1017.0 |
| 20260906030803 | 68 | 0 | 0.0 | 0.0 | 0.00 | 0.18 | 0.18 | 81 | 1017.0 |
| 20260906030603 | 68 | 0 | 0.0 | 0.0 | 0.00 | 0.18 | 0.18 | 81 | 1016.9 |
| 20260906030403 | 68 | 0 | 0.0 | 0.0 | 0.00 | 0.18 | 0.18 | 81 | 1016.9 |
| 20260906030203 | 68 | 0 | 0.0 | 0.0 | 0.00 | 0.18 | 0.18 | 81 | 1016.9 |
| 20260906030003 | 68 | 0 | 0.0 | 0.0 | 0.00 | 0.18 | 0.18 | 81 | 1016.8 |
| 20260906025803 | 68 | 0 | 0.0 | 0.0 | 0.00 | 0.18 | 0.18 | 81 | 1016.7 |
| 20260906025603 | 68 | 0 | 0.0 | 0.0 | 0.00 | 0.18 | 0.18 | 81 | 1016.6 |
| 20260906025403 | 68 | 125 | 0.0 | 4.0 | 0.00 | 0.18 | 0.18 | 81 | 1016.6 |
| 20260906025224 | 68 | 125 | 0.0 | 4.0 | 0.00 | 0.18 | 0.18 | 81 | 1016.6 |
| 20260906025003 | 68 | 125 | 0.0 | 4.0 | 0.00 | 0.18 | 0.18 | 81 | 1016.6 |
| 20260906024804 | 68 | 125 | 0.0 | 4.0 | 0.00 | 0.18 | 0.18 | 81 | 1016.6 |
| 20260906024603 | 68 | 125 | 0.0 | 4.0 | 0.00 | 0.18 | 0.18 | 81 | 1016.6 |
| 20260906024403 | 68 | 0 | 0.0 | 0.0 | 0.00 | 0.18 | 0.18 | 81 | 1016.5 |
| 20260906024203 | 68 | 0 | 0.0 | 0.0 | 0.00 | 0.18 | 0.18 | 81 | 1016.5 |
| 20260906024003 | 68 | 0 | 0.0 | 0.0 | 0.00 | 0.18 | 0.18 | 81 | 1016.6 |
| 20260906023803 | 68 | 0 | 0.0 | 0.0 | 0.00 | 0.18 | 0.18 | 81 | 1016.5 |
| 20260906023603 | 68 | 0 | 0.0 | 0.0 | 0.00 | 0.18 | 0.18 | 81 | 1016.5 |
| 20260906023403 | 68 | 0 | 0.0 | 0.0 | 0.00 | 0.18 | 0.18 | 81 | 1016.6 |
| 20260906023225 | 68 | 0 | 0.0 | 0.0 | 0.00 | 0.18 | 0.18 | 81 | 1016.6 |
| 20260906023003 | 68 | 0 | 0.0 | 0.0 | 0.00 | 0.18 | 0.18 | 81 | 1016.6 |
| 20260906022803 | 68 | 0 | 0.0 | 0.0 | 0.00 | 0.18 | 0.18 | 81 | 1016.7 |
| 20260906022603 | 68 | 0 | 0.0 | 0.0 | 0.00 | 0.18 | 0.18 | 81 | 1016.6 |
| 20260906022424 | 68 | 0 | 0.0 | 0.0 | 0.00 | 0.18 | 0.18 | 80 | 1016.6 |
| 20260906022224 | 68 | 0 | 0.0 | 0.0 | 0.00 | 0.18 | 0.18 | 80 | 1016.6 |
| 20260906022024 | 68 | 0 | 0.0 | 0.0 | 0.00 | 0.18 | 0.18 | 81 | 1016.6 |
| 20260906021803 | 68 | 0 | 0.0 | 0.0 | 0.00 | 0.18 | 0.18 | 81 | 1016.6 |
| 20260906021603 | 68 | 0 | 0.0 | 0.0 | 0.00 | 0.18 | 0.18 | 81 | 1016.6 |
| 20260906021403 | 68 | 0 | 0.0 | 0.0 | 0.00 | 0.18 | 0.18 | 81 | 1016.6 |
| 20260906021203 | 68 | 0 | 0.0 | 0.0 | 0.00 | 0.18 | 0.18 | 80 | 1016.6 |
| 20260906021003 | 68 | 0 | 0.0 | 0.0 | 0.00 | 0.18 | 0.18 | 81 | 1016.7 |
| 20260906020803 | 68 | 0 | 0.0 | 0.0 | 0.00 | 0.18 | 0.18 | 81 | 1016.6 |
| 20260906020603 | 68 | 0 | 0.0 | 0.0 | 0.00 | 0.18 | 0.18 | 80 | 1016.6 |
| 20260906020403 | 68 | 0 | 0.0 | 0.0 | 0.00 | 0.18 | 0.18 | 80 | 1016.6 |
| 20260906020203 | 68 | 0 | 0.0 | 0.0 | 0.00 | 0.18 | 0.18 | 80 | 1016.6 |
| 20260906020024 | 68 | 0 | 0.0 | 0.0 | 0.00 | 0.18 | 0.18 | 80 | 1016.6 |
| 20260906015803 | 68 | 0 | 0.0 | 0.0 | 0.00 | 0.18 | 0.18 | 80 | 1016.5 |
| 20260906015624 | 68 | 0 | 0.0 | 0.0 | 0.00 | 0.18 | 0.18 | 79 | 1016.5 |
| 20260906015403 | 68 | 0 | 0.0 | 0.0 | 0.00 | 0.18 | 0.18 | 79 | 1016.4 |
| 20260906015203 | 68 | 0 | 0.0 | 0.0 | 0.00 | 0.18 | 0.18 | 79 | 1016.4 |
| 20260906015004 | 68 | 0 | 0.0 | 0.0 | 0.00 | 0.18 | 0.18 | 79 | 1016.4 |
| 20260906014803 | 68 | 0 | 0.0 | 0.0 | 0.00 | 0.18 | 0.18 | 79 | 1016.3 |
| 20260906014603 | 68 | 0 | 0.0 | 0.0 | 0.00 | 0.18 | 0.18 | 79 | 1016.4 |
| 20260906014403 | 68 | 0 | 0.0 | 0.0 | 0.00 | 0.18 | 0.18 | 79 | 1016.3 |
| 20260906014203 | 69 | 0 | 0.0 | 0.0 | 0.00 | 0.18 | 0.18 | 79 | 1016.4 |
| 20260906014003 | 69 | 0 | 0.0 | 0.0 | 0.00 | 0.18 | 0.18 | 79 | 1016.3 |
| 20260906013803 | 69 | 0 | 0.0 | 0.0 | 0.00 | 0.18 | 0.18 | 79 | 1016.3 |
| 20260906013624 | 69 | 0 | 0.0 | 0.0 | 0.00 | 0.18 | 0.18 | 79 | 1016.3 |
| 20260906013403 | 69 | 0 | 0.0 | 0.0 | 0.00 | 0.18 | 0.18 | 79 | 1016.3 |
| 20260906013203 | 69 | 0 | 0.0 | 0.0 | 0.00 | 0.18 | 0.18 | 79 | 1016.2 |
| 20260906013003 | 69 | 0 | 0.0 | 0.0 | 0.00 | 0.18 | 0.18 | 79 | 1016.2 |
| 20260906012803 | 69 | 0 | 0.0 | 0.0 | 0.00 | 0.18 | 0.18 | 79 | 1016.2 |
| 20260906012603 | 69 | 0 | 0.0 | 0.0 | 0.00 | 0.18 | 0.18 | 79 | 1016.1 |
| 20260906012403 | 69 | 0 | 0.0 | 0.0 | 0.00 | 0.18 | 0.18 | 79 | 1016.1 |
| 20260906012203 | 69 | 0 | 0.0 | 0.0 | 0.00 | 0.18 | 0.18 | 79 | 1016.0 |
| 20260906012003 | 70 | 0 | 0.0 | 0.0 | 0.00 | 0.18 | 0.18 | 79 | 1016.0 |
| 20260906011803 | 70 | 0 | 0.0 | 0.0 | 0.00 | 0.18 | 0.18 | 79 | 1016.0 |
| 20260906011624 | 70 | 0 | 0.0 | 0.0 | 0.00 | 0.18 | 0.18 | 79 | 1015.9 |
| 20260906011403 | 70 | 0 | 0.0 | 0.0 | 0.00 | 0.18 | 0.18 | 79 | 1015.9 |
| 20260906011203 | 70 | 0 | 0.0 | 0.0 | 0.00 | 0.18 | 0.18 | 79 | 1015.8 |
| 20260906011003 | 70 | 0 | 0.0 | 0.0 | 0.00 | 0.18 | 0.18 | 78 | 1015.8 |
| 20260906010803 | 70 | 0 | 0.0 | 0.0 | 0.00 | 0.18 | 0.18 | 79 | 1015.9 |
| 20260906010603 | 70 | 0 | 0.0 | 0.0 | 0.00 | 0.18 | 0.18 | 79 | 1015.9 |
| 20260906010403 | 70 | 0 | 0.0 | 0.0 | 0.00 | 0.18 | 0.18 | 79 | 1015.9 |
| 20260906010224 | 70 | 0 | 0.0 | 0.0 | 0.00 | 0.18 | 0.18 | 79 | 1015.9 |
| 20260906010003 | 70 | 0 | 0.0 | 0.0 | 0.00 | 0.18 | 0.18 | 79 | 1016.0 |
| 20260906005803 | 70 | 0 | 0.0 | 0.0 | 0.00 | 0.18 | 0.18 | 79 | 1016.0 |
| 20260906005603 | 70 | 0 | 0.0 | 0.0 | 0.00 | 0.18 | 0.18 | 79 | 1015.9 |
| 20260906005403 | 70 | 0 | 0.0 | 0.0 | 0.00 | 0.18 | 0.18 | 79 | 1015.9 |
| 20260906005203 | 70 | 0 | 0.0 | 0.0 | 0.00 | 0.18 | 0.18 | 79 | 1015.8 |
| 20260906005003 | 70 | 0 | 0.0 | 0.0 | 0.00 | 0.18 | 0.18 | 79 | 1015.8 |
| 20260906004824 | 70 | 0 | 0.0 | 0.0 | 0.00 | 0.18 | 0.18 | 79 | 1015.8 |
| 20260906004603 | 70 | 0 | 0.0 | 0.0 | 0.00 | 0.18 | 0.18 | 79 | 1015.8 |
| 20260906004403 | 70 | 0 | 0.0 | 0.0 | 0.00 | 0.18 | 0.18 | 79 | 1015.8 |
| 20260906004203 | 70 | 0 | 0.0 | 0.0 | 0.00 | 0.18 | 0.18 | 78 | 1015.8 |
| 20260906004003 | 71 | 0 | 0.0 | 0.0 | 0.00 | 0.18 | 0.18 | 79 | 1015.8 |
| 20260906003803 | 71 | 0 | 0.0 | 0.0 | 0.00 | 0.18 | 0.18 | 79 | 1015.8 |
| 20260906003603 | 71 | 0 | 0.0 | 0.0 | 0.00 | 0.18 | 0.18 | 78 | 1015.8 |
| 20260906003403 | 71 | 0 | 0.0 | 0.0 | 0.00 | 0.18 | 0.18 | 78 | 1015.8 |
| 20260906003203 | 71 | 0 | 0.0 | 0.0 | 0.00 | 0.18 | 0.18 | 79 | 1015.8 |
| 20260906003003 | 71 | 0 | 0.0 | 0.0 | 0.00 | 0.18 | 0.18 | 78 | 1015.9 |
| 20260906002803 | 71 | 0 | 0.0 | 0.0 | 0.00 | 0.18 | 0.18 | 79 | 1015.9 |
| 20260906002603 | 71 | 0 | 0.0 | 0.0 | 0.00 | 0.18 | 0.18 | 78 | 1015.8 |
| 20260906002424 | 71 | 0 | 0.0 | 0.0 | 0.00 | 0.18 | 0.18 | 79 | 1015.8 |
| 20260906002203 | 71 | 0 | 0.0 | 0.0 | 0.00 | 0.18 | 0.18 | 79 | 1015.7 |
| 20260906002003 | 71 | 0 | 0.0 | 0.0 | 0.00 | 0.18 | 0.18 | 79 | 1015.7 |
| 20260906001803 | 71 | 0 | 0.0 | 0.0 | 0.00 | 0.18 | 0.18 | 79 | 1015.8 |
| 20260906001603 | 71 | 0 | 0.0 | 0.0 | 0.00 | 0.18 | 0.18 | 79 | 1015.8 |
| 20260906001403 | 71 | 0 | 0.0 | 0.0 | 0.00 | 0.18 | 0.18 | 79 | 1015.7 |
| 20260906001203 | 71 | 0 | 0.0 | 0.0 | 0.00 | 0.18 | 0.18 | 79 | 1015.7 |
| 20260906001024 | 71 | 0 | 0.0 | 0.0 | 0.00 | 0.18 | 0.18 | 79 | 1015.6 |
| 20260906000803 | 71 | 0 | 0.0 | 0.0 | 0.00 | 0.18 | 0.18 | 79 | 1015.7 |
| 20260906000603 | 71 | 0 | 0.0 | 0.0 | 0.00 | 0.18 | 0.18 | 79 | 1015.7 |
| 20260906000403 | 71 | 0 | 0.0 | 0.0 | 0.00 | 0.18 | 0.18 | 79 | 1015.7 |
| 20260906000204 | 71 | 0 | 0.0 | 0.0 | 0.00 | 0.18 | 0.18 | 79 | 1015.7 |
| 20260906000003 | 71 | 0 | 0.0 | 0.0 | 0.00 | 0.18 | 0.18 | 79 | 1015.8 |
| 20260905235803 | 71 | 0 | 0.0 | 0.0 | 0.00 | 0.18 | 0.18 | 79 | 1015.7 |
| 20260905235603 | 71 | 0 | 0.0 | 0.0 | 0.00 | 0.18 | 0.18 | 79 | 1015.7 |
| 20260905235403 | 71 | 0 | 0.0 | 0.0 | 0.00 | 0.18 | 0.18 | 79 | 1015.7 |
| 20260905235204 | 71 | 0 | 0.0 | 0.0 | 0.00 | 0.18 | 0.18 | 79 | 1015.6 |
| 20260905235003 | 71 | 0 | 0.0 | 0.0 | 0.00 | 0.18 | 0.18 | 79 | 1015.6 |
| 20260905234803 | 71 | 0 | 0.0 | 0.0 | 0.00 | 0.18 | 0.18 | 79 | 1015.6 |
| 20260905234603 | 71 | 0 | 0.0 | 0.0 | 0.00 | 0.18 | 0.18 | 79 | 1015.6 |
| 20260905234403 | 71 | 0 | 0.0 | 0.0 | 0.00 | 0.18 | 0.18 | 79 | 1015.6 |
| 20260905234203 | 71 | 0 | 0.0 | 0.0 | 0.00 | 0.18 | 0.18 | 79 | 1015.7 |
| 20260905234024 | 71 | 0 | 0.0 | 0.0 | 0.00 | 0.18 | 0.18 | 79 | 1015.7 |
| 20260905233803 | 71 | 0 | 0.0 | 0.0 | 0.00 | 0.18 | 0.18 | 79 | 1015.7 |
| 20260905233603 | 71 | 0 | 0.0 | 0.0 | 0.00 | 0.18 | 0.18 | 79 | 1015.7 |
| 20260905233424 | 71 | 0 | 0.0 | 0.0 | 0.00 | 0.18 | 0.18 | 79 | 1015.8 |
| 20260905233203 | 71 | 0 | 0.0 | 0.0 | 0.00 | 0.18 | 0.18 | 79 | 1015.8 |
| 20260905233024 | 71 | 0 | 0.0 | 0.0 | 0.00 | 0.18 | 0.18 | 79 | 1015.7 |
| 20260905232803 | 71 | 0 | 0.0 | 0.0 | 0.00 | 0.18 | 0.18 | 79 | 1015.7 |
| 20260905232624 | 71 | 0 | 0.0 | 0.0 | 0.00 | 0.18 | 0.18 | 79 | 1015.8 |
| 20260905232203 | 71 | 0 | 0.0 | 0.0 | 0.00 | 0.18 | 0.18 | 79 | 1015.8 |
| 20260905232003 | 71 | 0 | 0.0 | 0.0 | 0.00 | 0.18 | 0.18 | 79 | 1015.8 |
| 20260905231803 | 71 | 0 | 0.0 | 0.0 | 0.00 | 0.18 | 0.18 | 79 | 1015.7 |
| 20260905231624 | 71 | 0 | 0.0 | 0.0 | 0.00 | 0.18 | 0.18 | 79 | 1015.7 |
| 20260905231424 | 71 | 0 | 0.0 | 0.0 | 0.00 | 0.18 | 0.18 | 79 | 1015.6 |
| 20260905231203 | 71 | 0 | 0.0 | 0.0 | 0.00 | 0.18 | 0.18 | 79 | 1015.6 |
| 20260905231003 | 71 | 0 | 0.0 | 0.0 | 0.00 | 0.18 | 0.18 | 78 | 1015.6 |
| 20260905230803 | 71 | 0 | 0.0 | 0.0 | 0.00 | 0.18 | 0.18 | 79 | 1015.5 |
| 20260905230603 | 71 | 0 | 0.0 | 0.0 | 0.00 | 0.18 | 0.18 | 78 | 1015.5 |
| 20260905230403 | 71 | 0 | 0.0 | 0.0 | 0.00 | 0.18 | 0.18 | 78 | 1015.5 |
| 20260905230225 | 71 | 0 | 0.0 | 0.0 | 0.00 | 0.18 | 0.18 | 78 | 1015.5 |
| 20260905230024 | 71 | 0 | 0.0 | 0.0 | 0.00 | 0.18 | 0.18 | 78 | 1015.5 |
| 20260905225803 | 71 | 183 | 0.0 | 1.0 | 0.00 | 0.18 | 0.18 | 79 | 1015.5 |
| 20260905225603 | 71 | 183 | 0.0 | 1.0 | 0.00 | 0.18 | 0.18 | 78 | 1015.5 |
| 20260905225403 | 71 | 183 | 0.0 | 1.0 | 0.00 | 0.18 | 0.18 | 79 | 1015.5 |
| 20260905225203 | 71 | 185 | 0.0 | 3.0 | 0.00 | 0.18 | 0.18 | 79 | 1015.5 |
| 20260905225003 | 71 | 185 | 1.0 | 3.0 | 0.00 | 0.18 | 0.18 | 78 | 1015.5 |
| 20260905224803 | 71 | 185 | 1.0 | 3.0 | 0.00 | 0.18 | 0.18 | 79 | 1015.5 |
| 20260905224603 | 71 | 185 | 1.0 | 3.0 | 0.00 | 0.18 | 0.18 | 78 | 1015.5 |
| 20260905224403 | 71 | 185 | 1.0 | 3.0 | 0.00 | 0.18 | 0.18 | 78 | 1015.5 |
| 20260905224203 | 71 | 185 | 1.0 | 3.0 | 0.00 | 0.18 | 0.18 | 78 | 1015.5 |
| 20260905224004 | 71 | 184 | 0.0 | 3.0 | 0.00 | 0.18 | 0.18 | 78 | 1015.4 |
| 20260905223824 | 71 | 184 | 0.0 | 3.0 | 0.00 | 0.18 | 0.18 | 78 | 1015.4 |
| 20260905223603 | 71 | 184 | 0.0 | 2.0 | 0.00 | 0.18 | 0.18 | 78 | 1015.4 |
| 20260905223403 | 71 | 183 | 1.0 | 4.0 | 0.00 | 0.18 | 0.18 | 78 | 1015.4 |
| 20260905223224 | 71 | 184 | 1.0 | 5.0 | 0.00 | 0.18 | 0.18 | 78 | 1015.4 |
| 20260905223003 | 71 | 185 | 1.0 | 5.0 | 0.00 | 0.18 | 0.18 | 78 | 1015.5 |
| 20260905222803 | 71 | 185 | 2.0 | 5.0 | 0.00 | 0.18 | 0.18 | 78 | 1015.5 |
| 20260905222603 | 71 | 185 | 2.0 | 5.0 | 0.00 | 0.18 | 0.18 | 78 | 1015.4 |
| 20260905222403 | 71 | 186 | 1.0 | 5.0 | 0.00 | 0.18 | 0.18 | 77 | 1015.4 |
| 20260905222203 | 71 | 187 | 1.0 | 5.0 | 0.00 | 0.18 | 0.18 | 78 | 1015.4 |
| 20260905222003 | 71 | 187 | 2.0 | 5.0 | 0.00 | 0.18 | 0.18 | 77 | 1015.5 |
| 20260905221803 | 71 | 186 | 2.0 | 5.0 | 0.00 | 0.18 | 0.18 | 77 | 1015.5 |
| 20260905221603 | 71 | 183 | 2.0 | 6.0 | 0.00 | 0.18 | 0.18 | 77 | 1015.5 |
| 20260905221403 | 71 | 180 | 2.0 | 6.0 | 0.00 | 0.18 | 0.18 | 77 | 1015.4 |
| 20260905221224 | 71 | 179 | 2.0 | 6.0 | 0.00 | 0.18 | 0.18 | 77 | 1015.5 |
| 20260905221024 | 72 | 177 | 2.0 | 6.0 | 0.00 | 0.18 | 0.18 | 76 | 1015.5 |
| 20260905220803 | 72 | 176 | 3.0 | 8.0 | 0.00 | 0.18 | 0.18 | 76 | 1015.4 |
| 20260905220603 | 72 | 180 | 3.0 | 9.0 | 0.00 | 0.18 | 0.18 | 76 | 1015.4 |
| 20260905220424 | 72 | 182 | 3.0 | 9.0 | 0.00 | 0.18 | 0.18 | 76 | 1015.4 |
| 20260905220224 | 72 | 183 | 3.0 | 9.0 | 0.00 | 0.18 | 0.18 | 75 | 1015.3 |
| 20260905220003 | 72 | 181 | 4.0 | 9.0 | 0.00 | 0.18 | 0.18 | 75 | 1015.3 |
| 20260905215803 | 72 | 183 | 3.0 | 9.0 | 0.00 | 0.18 | 0.18 | 75 | 1015.3 |
| 20260905215624 | 72 | 181 | 3.0 | 8.0 | 0.00 | 0.18 | 0.18 | 75 | 1015.3 |
| 20260905215403 | 72 | 179 | 4.0 | 8.0 | 0.00 | 0.18 | 0.18 | 75 | 1015.3 |
| 20260905215224 | 72 | 179 | 4.0 | 8.0 | 0.00 | 0.18 | 0.18 | 75 | 1015.2 |
| 20260905215003 | 73 | 182 | 3.0 | 8.0 | 0.00 | 0.18 | 0.18 | 75 | 1015.2 |
| 20260905214803 | 73 | 182 | 3.0 | 7.0 | 0.00 | 0.18 | 0.18 | 74 | 1015.1 |
| 20260905214624 | 73 | 181 | 3.0 | 7.0 | 0.00 | 0.18 | 0.18 | 74 | 1015.2 |
| 20260905214403 | 73 | 184 | 4.0 | 7.0 | 0.00 | 0.18 | 0.18 | 74 | 1015.1 |
| 20260905214203 | 73 | 183 | 4.0 | 9.0 | 0.00 | 0.18 | 0.18 | 74 | 1015.1 |
| 20260905214003 | 73 | 181 | 4.0 | 9.0 | 0.00 | 0.18 | 0.18 | 74 | 1015.1 |
| 20260905213803 | 73 | 180 | 4.0 | 9.0 | 0.00 | 0.18 | 0.18 | 74 | 1015.1 |
| 20260905213603 | 73 | 180 | 4.0 | 9.0 | 0.00 | 0.18 | 0.18 | 74 | 1015.1 |
| 20260905213403 | 73 | 180 | 4.0 | 10.0 | 0.00 | 0.18 | 0.18 | 73 | 1015.1 |
| 20260905213203 | 73 | 177 | 4.0 | 10.0 | 0.00 | 0.18 | 0.18 | 73 | 1015.0 |
| 20260905213003 | 73 | 176 | 4.0 | 10.0 | 0.00 | 0.18 | 0.18 | 73 | 1015.1 |
| 20260905212803 | 73 | 174 | 4.0 | 10.0 | 0.00 | 0.18 | 0.18 | 74 | 1015.0 |
| 20260905212603 | 73 | 174 | 4.0 | 10.0 | 0.00 | 0.18 | 0.18 | 73 | 1015.0 |
| 20260905212403 | 74 | 169 | 4.0 | 10.0 | 0.00 | 0.18 | 0.18 | 73 | 1015.0 |
| 20260905212203 | 74 | 171 | 5.0 | 10.0 | 0.00 | 0.18 | 0.18 | 73 | 1015.0 |
| 20260905212003 | 74 | 173 | 5.0 | 10.0 | 0.00 | 0.18 | 0.18 | 73 | 1015.0 |
| 20260905211803 | 74 | 173 | 5.0 | 10.0 | 0.00 | 0.18 | 0.18 | 73 | 1014.9 |
| 20260905211603 | 74 | 174 | 5.0 | 13.0 | 0.00 | 0.18 | 0.18 | 73 | 1014.9 |
| 20260905211403 | 74 | 176 | 5.0 | 13.0 | 0.00 | 0.18 | 0.18 | 73 | 1015.0 |
| 20260905211203 | 74 | 176 | 5.0 | 13.0 | 0.00 | 0.18 | 0.18 | 73 | 1014.9 |
| 20260905211003 | 74 | 176 | 5.0 | 13.0 | 0.00 | 0.18 | 0.18 | 73 | 1014.9 |
| 20260905210803 | 74 | 177 | 5.0 | 13.0 | 0.00 | 0.18 | 0.18 | 73 | 1014.9 |
| 20260905210624 | 74 | 178 | 5.0 | 11.0 | 0.00 | 0.18 | 0.18 | 73 | 1014.8 |
| 20260905210403 | 74 | 175 | 6.0 | 11.0 | 0.00 | 0.18 | 0.18 | 73 | 1014.8 |
| 20260905210203 | 74 | 176 | 6.0 | 11.0 | 0.00 | 0.18 | 0.18 | 74 | 1014.8 |
| 20260905210004 | 74 | 174 | 6.0 | 11.0 | 0.00 | 0.18 | 0.18 | 74 | 1014.8 |
| 20260905205824 | 74 | 176 | 6.0 | 14.0 | 0.00 | 0.18 | 0.18 | 74 | 1014.8 |
| 20260905205603 | 74 | 174 | 6.0 | 14.0 | 0.00 | 0.18 | 0.18 | 74 | 1014.8 |
| 20260905205403 | 74 | 176 | 6.0 | 14.0 | 0.00 | 0.18 | 0.18 | 73 | 1014.8 |
| 20260905205203 | 74 | 177 | 6.0 | 14.0 | 0.00 | 0.18 | 0.18 | 74 | 1014.9 |
| 20260905205003 | 74 | 178 | 6.0 | 14.0 | 0.00 | 0.18 | 0.18 | 73 | 1014.9 |
| 20260905204803 | 74 | 176 | 6.0 | 14.0 | 0.00 | 0.18 | 0.18 | 74 | 1014.9 |
| 20260905204603 | 74 | 176 | 6.0 | 14.0 | 0.00 | 0.18 | 0.18 | 74 | 1014.9 |
| 20260905204403 | 74 | 177 | 6.0 | 14.0 | 0.00 | 0.18 | 0.18 | 73 | 1014.9 |
| 20260905204203 | 75 | 176 | 5.0 | 14.0 | 0.00 | 0.18 | 0.18 | 74 | 1014.9 |
| 20260905204003 | 75 | 174 | 5.0 | 14.0 | 0.00 | 0.18 | 0.18 | 73 | 1014.9 |
| 20260905203824 | 75 | 176 | 5.0 | 9.0 | 0.00 | 0.18 | 0.18 | 73 | 1014.9 |
| 20260905203603 | 75 | 172 | 5.0 | 9.0 | 0.00 | 0.18 | 0.18 | 73 | 1014.9 |
| 20260905203403 | 75 | 173 | 5.0 | 10.0 | 0.00 | 0.18 | 0.18 | 73 | 1014.9 |
| 20260905203224 | 75 | 172 | 5.0 | 10.0 | 0.00 | 0.18 | 0.18 | 74 | 1014.9 |
| 20260905203024 | 75 | 175 | 5.0 | 10.0 | 0.00 | 0.18 | 0.18 | 73 | 1014.9 |
| 20260905202824 | 75 | 175 | 4.0 | 10.0 | 0.00 | 0.18 | 0.18 | 73 | 1014.9 |
| 20260905202603 | 75 | 179 | 4.0 | 10.0 | 0.00 | 0.18 | 0.18 | 73 | 1015.0 |
| 20260905202403 | 75 | 178 | 3.0 | 8.0 | 0.00 | 0.18 | 0.18 | 74 | 1014.9 |
| 20260905202203 | 75 | 177 | 3.0 | 7.0 | 0.00 | 0.18 | 0.18 | 74 | 1015.0 |
| 20260905202003 | 75 | 177 | 3.0 | 7.0 | 0.00 | 0.18 | 0.18 | 74 | 1014.9 |
| 20260905201803 | 75 | 175 | 4.0 | 9.0 | 0.00 | 0.18 | 0.18 | 74 | 1014.9 |
| 20260905201603 | 75 | 177 | 5.0 | 11.0 | 0.00 | 0.18 | 0.18 | 74 | 1014.9 |
| 20260905201403 | 75 | 174 | 5.0 | 11.0 | 0.00 | 0.18 | 0.18 | 73 | 1014.9 |
| 20260905201203 | 75 | 174 | 5.0 | 11.0 | 0.00 | 0.18 | 0.18 | 73 | 1015.0 |
| 20260905201003 | 75 | 174 | 5.0 | 11.0 | 0.00 | 0.18 | 0.18 | 73 | 1015.0 |
| 20260905200803 | 76 | 173 | 5.0 | 11.0 | 0.00 | 0.18 | 0.18 | 73 | 1014.9 |
| 20260905200603 | 76 | 172 | 5.0 | 9.0 | 0.00 | 0.18 | 0.18 | 73 | 1015.0 |
| 20260905200403 | 76 | 173 | 4.0 | 8.0 | 0.00 | 0.18 | 0.18 | 73 | 1015.0 |
| 20260905200203 | 76 | 174 | 4.0 | 8.0 | 0.00 | 0.18 | 0.18 | 73 | 1015.0 |
| 20260905200003 | 76 | 173 | 4.0 | 8.0 | 0.00 | 0.18 | 0.18 | 73 | 1015.0 |
| 20260905195803 | 76 | 175 | 4.0 | 8.0 | 0.00 | 0.18 | 0.18 | 73 | 1015.0 |
| 20260905195603 | 76 | 175 | 4.0 | 8.0 | 0.00 | 0.18 | 0.18 | 73 | 1014.9 |
| 20260905195403 | 76 | 176 | 4.0 | 10.0 | 0.00 | 0.18 | 0.18 | 73 | 1014.9 |
| 20260905195203 | 76 | 175 | 4.0 | 10.0 | 0.00 | 0.18 | 0.18 | 73 | 1014.9 |
| 20260905195004 | 76 | 175 | 4.0 | 10.0 | 0.00 | 0.18 | 0.18 | 72 | 1014.9 |
| 20260905194803 | 76 | 172 | 4.0 | 10.0 | 0.00 | 0.18 | 0.18 | 72 | 1015.0 |
| 20260905194603 | 76 | 170 | 4.0 | 10.0 | 0.00 | 0.18 | 0.18 | 72 | 1015.0 |
| 20260905194403 | 76 | 170 | 4.0 | 7.0 | 0.00 | 0.18 | 0.18 | 72 | 1015.0 |
| 20260905194203 | 76 | 173 | 4.0 | 7.0 | 0.00 | 0.18 | 0.18 | 72 | 1014.9 |
| 20260905194003 | 76 | 173 | 4.0 | 7.0 | 0.00 | 0.18 | 0.18 | 72 | 1014.9 |
| 20260905193803 | 76 | 180 | 4.0 | 10.0 | 0.00 | 0.18 | 0.18 | 73 | 1014.9 |
| 20260905193603 | 76 | 180 | 4.0 | 10.0 | 0.00 | 0.18 | 0.18 | 73 | 1014.9 |
| 20260905193403 | 76 | 182 | 4.0 | 10.0 | 0.00 | 0.18 | 0.18 | 72 | 1014.9 |
| 20260905193203 | 76 | 183 | 4.0 | 10.0 | 0.00 | 0.18 | 0.18 | 72 | 1014.9 |
| 20260905193024 | 76 | 184 | 4.0 | 10.0 | 0.00 | 0.18 | 0.18 | 73 | 1014.9 |
| 20260905192803 | 76 | 183 | 4.0 | 7.0 | 0.00 | 0.18 | 0.18 | 73 | 1014.9 |
| 20260905192603 | 76 | 184 | 4.0 | 7.0 | 0.00 | 0.18 | 0.18 | 73 | 1014.9 |
| 20260905192403 | 76 | 181 | 4.0 | 6.0 | 0.00 | 0.18 | 0.18 | 73 | 1015.0 |
| 20260905192203 | 76 | 180 | 3.0 | 6.0 | 0.00 | 0.18 | 0.18 | 73 | 1015.0 |
| 20260905192003 | 76 | 179 | 3.0 | 6.0 | 0.00 | 0.18 | 0.18 | 73 | 1015.0 |
| 20260905191803 | 76 | 179 | 3.0 | 7.0 | 0.00 | 0.18 | 0.18 | 73 | 1015.0 |
| 20260905191603 | 76 | 178 | 3.0 | 7.0 | 0.00 | 0.18 | 0.18 | 73 | 1015.0 |
| 20260905191403 | 76 | 179 | 4.0 | 7.0 | 0.00 | 0.18 | 0.18 | 74 | 1015.1 |
| 20260905191203 | 76 | 179 | 4.0 | 7.0 | 0.00 | 0.18 | 0.18 | 73 | 1015.1 |
| 20260905191003 | 76 | 180 | 5.0 | 10.0 | 0.00 | 0.18 | 0.18 | 73 | 1015.1 |
| 20260905190803 | 76 | 180 | 5.0 | 10.0 | 0.00 | 0.18 | 0.18 | 73 | 1015.0 |
| 20260905190603 | 76 | 180 | 5.0 | 10.0 | 0.00 | 0.18 | 0.18 | 73 | 1015.0 |
| 20260905190403 | 76 | 181 | 5.0 | 10.0 | 0.00 | 0.18 | 0.18 | 73 | 1015.0 |
| 20260905190203 | 76 | 182 | 5.0 | 10.0 | 0.00 | 0.18 | 0.18 | 72 | 1015.0 |
| 20260905190003 | 76 | 180 | 5.0 | 9.0 | 0.00 | 0.18 | 0.18 | 73 | 1015.0 |
| 20260905185824 | 76 | 178 | 4.0 | 9.0 | 0.00 | 0.18 | 0.18 | 73 | 1015.0 |
| 20260905185603 | 77 | 177 | 4.0 | 9.0 | 0.00 | 0.18 | 0.18 | 73 | 1015.0 |
| 20260905185403 | 77 | 176 | 4.0 | 8.0 | 0.00 | 0.18 | 0.18 | 72 | 1015.0 |
| 20260905185203 | 77 | 174 | 4.0 | 8.0 | 0.00 | 0.18 | 0.18 | 73 | 1015.0 |
| 20260905185003 | 77 | 175 | 4.0 | 8.0 | 0.00 | 0.18 | 0.18 | 73 | 1015.0 |
| 20260905184803 | 77 | 178 | 4.0 | 9.0 | 0.00 | 0.18 | 0.18 | 72 | 1015.0 |
| 20260905184603 | 77 | 179 | 4.0 | 9.0 | 0.00 | 0.18 | 0.18 | 72 | 1015.0 |
| 20260905184403 | 77 | 179 | 4.0 | 9.0 | 0.00 | 0.18 | 0.18 | 72 | 1015.0 |
| 20260905184203 | 77 | 181 | 3.0 | 9.0 | 0.00 | 0.18 | 0.18 | 72 | 1015.0 |
| 20260905184003 | 77 | 182 | 3.0 | 9.0 | 0.00 | 0.18 | 0.18 | 71 | 1015.0 |
| 20260905183803 | 77 | 184 | 3.0 | 5.0 | 0.00 | 0.18 | 0.18 | 71 | 1015.0 |
| 20260905183603 | 77 | 183 | 2.0 | 5.0 | 0.00 | 0.18 | 0.18 | 71 | 1015.0 |
| 20260905183424 | 77 | 182 | 2.0 | 5.0 | 0.00 | 0.18 | 0.18 | 72 | 1015.0 |
| 20260905183203 | 77 | 180 | 3.0 | 5.0 | 0.00 | 0.18 | 0.18 | 71 | 1015.0 |
| 20260905183003 | 77 | 180 | 3.0 | 7.0 | 0.00 | 0.18 | 0.18 | 71 | 1015.0 |
| 20260905182803 | 77 | 172 | 3.0 | 7.0 | 0.00 | 0.18 | 0.18 | 71 | 1015.0 |
| 20260905182603 | 77 | 172 | 4.0 | 7.0 | 0.00 | 0.18 | 0.18 | 71 | 1015.0 |
| 20260905182424 | 77 | 172 | 4.0 | 7.0 | 0.00 | 0.18 | 0.18 | 71 | 1015.0 |
| 20260905182203 | 78 | 173 | 4.0 | 7.0 | 0.00 | 0.18 | 0.18 | 70 | 1015.0 |
| 20260905182003 | 78 | 168 | 4.0 | 7.0 | 0.00 | 0.18 | 0.18 | 70 | 1015.0 |
| 20260905181803 | 78 | 174 | 3.0 | 7.0 | 0.00 | 0.18 | 0.18 | 70 | 1015.0 |
| 20260905181603 | 78 | 176 | 3.0 | 7.0 | 0.00 | 0.18 | 0.18 | 70 | 1015.1 |
| 20260905181403 | 78 | 178 | 2.0 | 6.0 | 0.00 | 0.18 | 0.18 | 69 | 1015.1 |
| 20260905181203 | 78 | 178 | 2.0 | 6.0 | 0.00 | 0.18 | 0.18 | 70 | 1015.1 |
| 20260905181024 | 78 | 181 | 2.0 | 5.0 | 0.00 | 0.18 | 0.18 | 69 | 1015.1 |
| 20260905180824 | 78 | 175 | 2.0 | 5.0 | 0.00 | 0.18 | 0.18 | 69 | 1015.0 |
| 20260905180624 | 78 | 173 | 2.0 | 8.0 | 0.00 | 0.18 | 0.18 | 68 | 1015.0 |
| 20260905180403 | 78 | 171 | 3.0 | 8.0 | 0.00 | 0.18 | 0.18 | 68 | 1015.0 |
| 20260905180203 | 78 | 170 | 3.0 | 8.0 | 0.00 | 0.19 | 0.18 | 69 | 1015.0 |
| 20260905180004 | 79 | 173 | 3.0 | 8.0 | 0.00 | 0.19 | 0.18 | 69 | 1015.0 |
| 20260905175803 | 79 | 174 | 2.0 | 8.0 | 0.00 | 0.19 | 0.18 | 69 | 1015.0 |
| 20260905175603 | 79 | 181 | 1.0 | 7.0 | 0.00 | 0.19 | 0.18 | 69 | 1014.9 |
| 20260905175404 | 79 | 184 | 1.0 | 4.0 | 0.00 | 0.19 | 0.18 | 68 | 1015.0 |
| 20260905175203 | 79 | 162 | 1.0 | 3.0 | 0.00 | 0.19 | 0.18 | 69 | 1015.0 |
| 20260905175003 | 79 | 141 | 1.0 | 3.0 | 0.00 | 0.19 | 0.18 | 69 | 1015.1 |
| 20260905174803 | 78 | 134 | 1.0 | 3.0 | 0.00 | 0.19 | 0.18 | 69 | 1015.0 |
| 20260905174603 | 78 | 138 | 2.0 | 5.0 | 0.00 | 0.19 | 0.18 | 70 | 1015.0 |
| 20260905174403 | 78 | 148 | 2.0 | 6.0 | 0.00 | 0.19 | 0.18 | 71 | 1015.0 |
| 20260905174203 | 78 | 155 | 2.0 | 6.0 | 0.00 | 0.19 | 0.18 | 71 | 1015.0 |
| 20260905174003 | 78 | 166 | 2.0 | 6.0 | 0.00 | 0.19 | 0.18 | 70 | 1014.9 |
| 20260905173803 | 78 | 175 | 3.0 | 7.0 | 0.00 | 0.19 | 0.18 | 70 | 1015.0 |
| 20260905173603 | 78 | 180 | 2.0 | 7.0 | 0.00 | 0.19 | 0.18 | 70 | 1015.0 |
| 20260905173403 | 78 | 181 | 2.0 | 7.0 | 0.00 | 0.19 | 0.18 | 70 | 1015.0 |
| 20260905173203 | 78 | 180 | 2.0 | 7.0 | 0.00 | 0.19 | 0.18 | 69 | 1015.1 |
| 20260905173003 | 78 | 180 | 1.0 | 7.0 | 0.00 | 0.19 | 0.18 | 69 | 1015.1 |
| 20260905172803 | 78 | 187 | 0.0 | 4.0 | 0.00 | 0.19 | 0.18 | 69 | 1015.2 |
| 20260905172603 | 78 | 184 | 0.0 | 3.0 | 0.00 | 0.19 | 0.18 | 69 | 1015.2 |
| 20260905172403 | 78 | 166 | 1.0 | 4.0 | 0.00 | 0.19 | 0.18 | 70 | 1015.3 |
| 20260905172224 | 78 | 170 | 1.0 | 5.0 | 0.00 | 0.19 | 0.18 | 69 | 1015.3 |
| 20260905172003 | 78 | 171 | 1.0 | 5.0 | 0.00 | 0.19 | 0.18 | 69 | 1015.3 |
| 20260905171803 | 78 | 201 | 1.0 | 5.0 | 0.00 | 0.19 | 0.18 | 69 | 1015.3 |
| 20260905171603 | 78 | 257 | 1.0 | 5.0 | 0.00 | 0.19 | 0.18 | 69 | 1015.3 |
| 20260905171403 | 78 | 277 | 1.0 | 5.0 | 0.00 | 0.20 | 0.18 | 70 | 1015.3 |
| 20260905171203 | 78 | 287 | 1.0 | 5.0 | 0.00 | 0.20 | 0.18 | 70 | 1015.3 |
| 20260905171024 | 78 | 284 | 1.0 | 5.0 | 0.00 | 0.20 | 0.18 | 70 | 1015.3 |
| 20260905170803 | 78 | 258 | 1.0 | 5.0 | 0.00 | 0.20 | 0.18 | 71 | 1015.3 |
| 20260905170603 | 78 | 214 | 1.0 | 5.0 | 0.00 | 0.20 | 0.18 | 71 | 1015.3 |
| 20260905170403 | 77 | 218 | 1.0 | 5.0 | 0.00 | 0.20 | 0.18 | 71 | 1015.4 |
| 20260905170203 | 77 | 188 | 2.0 | 5.0 | 0.00 | 0.21 | 0.18 | 72 | 1015.4 |
| 20260905170003 | 77 | 183 | 2.0 | 5.0 | 0.00 | 0.22 | 0.18 | 71 | 1015.4 |
| 20260905165803 | 77 | 225 | 2.0 | 4.0 | 0.00 | 0.24 | 0.18 | 72 | 1015.4 |
| 20260905165603 | 77 | 234 | 2.0 | 4.0 | 0.00 | 0.32 | 0.18 | 72 | 1015.3 |
| 20260905165424 | 77 | 258 | 2.0 | 5.0 | 0.00 | 0.37 | 0.18 | 72 | 1015.3 |
| 20260905165224 | 76 | 293 | 1.0 | 5.0 | 0.00 | 0.38 | 0.18 | 72 | 1015.3 |
| 20260905165003 | 76 | 291 | 1.0 | 5.0 | 0.00 | 0.42 | 0.18 | 74 | 1015.4 |
| 20260905164803 | 76 | 282 | 1.0 | 5.0 | 0.00 | 0.44 | 0.18 | 74 | 1015.4 |
| 20260905164603 | 75 | 274 | 1.0 | 5.0 | 0.00 | 0.44 | 0.18 | 75 | 1015.4 |
| 20260905164403 | 75 | 223 | 1.0 | 4.0 | 0.00 | 0.44 | 0.18 | 75 | 1015.4 |
| 20260905164203 | 75 | 196 | 1.0 | 7.0 | 0.00 | 0.44 | 0.18 | 74 | 1015.4 |
| 20260905164024 | 75 | 194 | 2.0 | 7.0 | 0.00 | 0.44 | 0.18 | 75 | 1015.4 |
| 20260905163803 | 74 | 181 | 2.0 | 7.0 | 0.00 | 0.44 | 0.18 | 75 | 1015.3 |
| 20260905163603 | 74 | 181 | 2.0 | 7.0 | 0.00 | 0.44 | 0.18 | 75 | 1015.3 |
| 20260905163403 | 74 | 181 | 2.0 | 7.0 | 0.00 | 0.44 | 0.18 | 75 | 1015.3 |
| 20260905163203 | 74 | 182 | 2.0 | 7.0 | 0.00 | 0.44 | 0.18 | 75 | 1015.2 |
| 20260905163003 | 74 | 182 | 1.0 | 7.0 | 0.00 | 0.44 | 0.18 | 75 | 1015.4 |
| 20260905162803 | 74 | 184 | 1.0 | 5.0 | 0.00 | 0.44 | 0.18 | 74 | 1015.4 |
| 20260905162603 | 74 | 185 | 1.0 | 4.0 | 0.00 | 0.44 | 0.18 | 75 | 1015.4 |
| 20260905162424 | 74 | 186 | 1.0 | 5.0 | 0.00 | 0.44 | 0.18 | 75 | 1015.4 |
| 20260905162203 | 74 | 185 | 2.0 | 5.0 | 0.00 | 0.44 | 0.18 | 75 | 1015.4 |
| 20260905162003 | 74 | 181 | 2.0 | 5.0 | 0.00 | 0.44 | 0.18 | 75 | 1015.3 |
| 20260905161803 | 74 | 180 | 3.0 | 5.0 | 0.00 | 0.44 | 0.18 | 75 | 1015.3 |
| 20260905161603 | 74 | 180 | 3.0 | 5.0 | 0.00 | 0.44 | 0.18 | 75 | 1015.3 |
| 20260905161424 | 74 | 179 | 3.0 | 6.0 | 0.00 | 0.44 | 0.18 | 75 | 1015.3 |
| 20260905161203 | 74 | 178 | 2.0 | 6.0 | 0.00 | 0.44 | 0.18 | 75 | 1015.3 |
| 20260905161003 | 74 | 180 | 2.0 | 6.0 | 0.00 | 0.44 | 0.18 | 75 | 1015.4 |
| 20260905160803 | 75 | 184 | 1.0 | 6.0 | 0.00 | 0.44 | 0.18 | 74 | 1015.3 |
| 20260905160603 | 75 | 185 | 1.0 | 6.0 | 0.00 | 0.44 | 0.18 | 74 | 1015.3 |
| 20260905160403 | 75 | 189 | 1.0 | 5.0 | 0.00 | 0.44 | 0.18 | 74 | 1015.3 |
| 20260905160203 | 75 | 190 | 1.0 | 5.0 | 0.00 | 0.44 | 0.18 | 74 | 1015.3 |
| 20260905160003 | 75 | 189 | 1.0 | 5.0 | 0.00 | 0.44 | 0.18 | 74 | 1015.3 |
| 20260905155803 | 75 | 187 | 1.0 | 4.0 | 0.00 | 0.44 | 0.18 | 75 | 1015.3 |
| 20260905155603 | 74 | 181 | 1.0 | 7.0 | 0.00 | 0.44 | 0.18 | 74 | 1015.3 |
| 20260905155403 | 74 | 182 | 1.0 | 7.0 | 0.00 | 0.44 | 0.18 | 74 | 1015.3 |
| 20260905155224 | 74 | 195 | 1.0 | 7.0 | 0.00 | 0.44 | 0.18 | 75 | 1015.3 |
| 20260905155003 | 74 | 196 | 1.0 | 7.0 | 0.00 | 0.44 | 0.18 | 74 | 1015.3 |
| 20260905154824 | 74 | 189 | 2.0 | 7.0 | 0.00 | 0.44 | 0.18 | 74 | 1015.3 |
| 20260905154603 | 74 | 225 | 2.0 | 6.0 | 0.00 | 0.44 | 0.18 | 75 | 1015.2 |
| 20260905154403 | 74 | 209 | 2.0 | 6.0 | 0.00 | 0.44 | 0.18 | 75 | 1015.2 |
| 20260905154203 | 74 | 193 | 1.0 | 6.0 | 0.00 | 0.44 | 0.18 | 75 | 1015.3 |
| 20260905154003 | 74 | 195 | 1.0 | 6.0 | 0.00 | 0.44 | 0.18 | 75 | 1015.4 |
| 20260905153803 | 74 | 197 | 1.0 | 5.0 | 0.00 | 0.44 | 0.18 | 75 | 1015.4 |
| 20260905153624 | 74 | 185 | 1.0 | 5.0 | 0.00 | 0.44 | 0.18 | 75 | 1015.3 |
| 20260905153424 | 74 | 185 | 1.0 | 5.0 | 0.00 | 0.44 | 0.18 | 77 | 1015.3 |
| 20260905153204 | 73 | 186 | 2.0 | 8.0 | 0.00 | 0.44 | 0.18 | 76 | 1015.3 |
| 20260905153024 | 73 | 188 | 3.0 | 8.0 | 0.00 | 0.44 | 0.18 | 76 | 1015.3 |
| 20260905152803 | 73 | 192 | 3.0 | 8.0 | 0.00 | 0.44 | 0.18 | 77 | 1015.2 |
| 20260905152603 | 73 | 190 | 3.0 | 8.0 | 0.00 | 0.44 | 0.18 | 76 | 1015.1 |
| 20260905152403 | 73 | 189 | 2.0 | 8.0 | 0.00 | 0.44 | 0.18 | 76 | 1015.2 |
| 20260905152203 | 73 | 184 | 2.0 | 6.0 | 0.00 | 0.44 | 0.18 | 76 | 1015.3 |
| 20260905152024 | 73 | 183 | 2.0 | 6.0 | 0.00 | 0.44 | 0.18 | 76 | 1015.3 |
| 20260905151803 | 73 | 175 | 1.0 | 6.0 | 0.00 | 0.44 | 0.18 | 76 | 1015.4 |
| 20260905151603 | 73 | 175 | 1.0 | 5.0 | 0.00 | 0.44 | 0.18 | 76 | 1015.4 |
| 20260905151403 | 73 | 177 | 1.0 | 5.0 | 0.00 | 0.44 | 0.18 | 76 | 1015.3 |
| 20260905151203 | 73 | 184 | 1.0 | 4.0 | 0.00 | 0.44 | 0.18 | 76 | 1015.3 |
| 20260905151024 | 73 | 197 | 1.0 | 6.0 | 0.00 | 0.44 | 0.18 | 77 | 1015.3 |
| 20260905150803 | 73 | 197 | 1.0 | 6.0 | 0.00 | 0.44 | 0.18 | 77 | 1015.3 |
| 20260905150603 | 73 | 197 | 1.0 | 6.0 | 0.00 | 0.44 | 0.18 | 77 | 1015.2 |
| 20260905150403 | 73 | 193 | 1.0 | 6.0 | 0.00 | 0.44 | 0.18 | 77 | 1015.1 |
| 20260905150203 | 73 | 206 | 1.0 | 6.0 | 0.00 | 0.44 | 0.18 | 77 | 1015.1 |
| 20260905150003 | 73 | 183 | 1.0 | 4.0 | 0.00 | 0.44 | 0.18 | 77 | 1015.0 |
| 20260905145803 | 73 | 182 | 1.0 | 4.0 | 0.00 | 0.44 | 0.18 | 77 | 1015.0 |
| 20260905145624 | 73 | 181 | 1.0 | 5.0 | 0.00 | 0.44 | 0.18 | 77 | 1015.0 |
| 20260905145424 | 72 | 179 | 2.0 | 5.0 | 0.00 | 0.44 | 0.18 | 77 | 1015.0 |
| 20260905145203 | 72 | 180 | 2.0 | 5.0 | 0.00 | 0.44 | 0.18 | 78 | 1014.9 |
| 20260905145003 | 72 | 179 | 3.0 | 6.0 | 0.00 | 0.44 | 0.18 | 78 | 1015.0 |
| 20260905144803 | 72 | 176 | 3.0 | 6.0 | 0.00 | 0.44 | 0.18 | 78 | 1015.0 |
| 20260905144603 | 72 | 177 | 3.0 | 6.0 | 0.00 | 0.44 | 0.18 | 78 | 1015.0 |
| 20260905144403 | 72 | 179 | 2.0 | 6.0 | 0.00 | 0.44 | 0.18 | 78 | 1015.0 |
| 20260905144203 | 72 | 177 | 2.0 | 6.0 | 0.00 | 0.44 | 0.18 | 78 | 1015.0 |
| 20260905144003 | 72 | 179 | 1.0 | 6.0 | 0.00 | 0.44 | 0.18 | 78 | 1015.0 |
| 20260905143803 | 72 | 193 | 1.0 | 6.0 | 0.00 | 0.44 | 0.18 | 78 | 1015.1 |
| 20260905143603 | 72 | 197 | 1.0 | 3.0 | 0.00 | 0.44 | 0.18 | 80 | 1015.0 |
| 20260905143403 | 72 | 187 | 1.0 | 3.0 | 0.00 | 0.45 | 0.18 | 79 | 1015.1 |
| 20260905143224 | 72 | 186 | 1.0 | 5.0 | 0.00 | 0.45 | 0.18 | 80 | 1015.0 |
| 20260905143024 | 72 | 182 | 2.0 | 6.0 | 0.00 | 0.45 | 0.18 | 80 | 1015.0 |
| 20260905142803 | 71 | 182 | 2.0 | 8.0 | 0.00 | 0.46 | 0.18 | 80 | 1015.0 |
| 20260905142603 | 71 | 183 | 2.0 | 8.0 | 0.00 | 0.47 | 0.18 | 80 | 1015.0 |
| 20260905142403 | 71 | 181 | 2.0 | 8.0 | 0.00 | 0.48 | 0.18 | 79 | 1015.0 |
| 20260905142203 | 71 | 180 | 2.0 | 8.0 | 0.00 | 0.49 | 0.18 | 80 | 1015.0 |
| 20260905142003 | 71 | 182 | 2.0 | 8.0 | 0.00 | 0.52 | 0.18 | 81 | 1015.0 |
| 20260905141803 | 71 | 183 | 3.0 | 7.0 | 0.00 | 0.54 | 0.18 | 81 | 1015.0 |
| 20260905141624 | 71 | 182 | 3.0 | 7.0 | 0.00 | 0.54 | 0.18 | 81 | 1015.0 |
| 20260905141403 | 71 | 182 | 3.0 | 7.0 | 0.00 | 0.54 | 0.18 | 81 | 1015.0 |
| 20260905141203 | 70 | 182 | 3.0 | 7.0 | 0.00 | 0.54 | 0.18 | 80 | 1014.9 |
| 20260905141024 | 71 | 182 | 2.0 | 5.0 | 0.00 | 0.54 | 0.18 | 81 | 1014.9 |
| 20260905140824 | 70 | 181 | 2.0 | 5.0 | 0.00 | 0.54 | 0.18 | 81 | 1014.9 |
| 20260905140603 | 70 | 179 | 1.0 | 5.0 | 0.00 | 0.54 | 0.18 | 81 | 1014.8 |
| 20260905140403 | 70 | 181 | 1.0 | 5.0 | 0.00 | 0.54 | 0.18 | 82 | 1014.8 |
| 20260905140203 | 70 | 181 | 1.0 | 4.0 | 0.00 | 0.54 | 0.18 | 82 | 1014.8 |
| 20260905140004 | 70 | 181 | 1.0 | 4.0 | 0.00 | 0.54 | 0.18 | 82 | 1014.8 |
| 20260905135803 | 70 | 181 | 1.0 | 4.0 | 0.00 | 0.54 | 0.18 | 82 | 1014.8 |
| 20260905135603 | 70 | 181 | 1.0 | 4.0 | 0.00 | 0.54 | 0.18 | 82 | 1014.8 |
| 20260905135403 | 70 | 180 | 1.0 | 4.0 | 0.00 | 0.54 | 0.18 | 82 | 1014.8 |
| 20260905135203 | 70 | 179 | 1.0 | 3.0 | 0.00 | 0.54 | 0.18 | 82 | 1014.8 |
| 20260905135003 | 70 | 179 | 1.0 | 4.0 | 0.00 | 0.54 | 0.18 | 82 | 1014.8 |
| 20260905134803 | 70 | 181 | 1.0 | 4.0 | 0.00 | 0.54 | 0.18 | 82 | 1014.8 |
| 20260905134603 | 70 | 181 | 1.0 | 4.0 | 0.00 | 0.54 | 0.18 | 82 | 1014.8 |
| 20260905134403 | 70 | 182 | 1.0 | 4.0 | 0.00 | 0.54 | 0.18 | 82 | 1014.8 |
| 20260905134203 | 70 | 183 | 1.0 | 4.0 | 0.00 | 0.54 | 0.18 | 82 | 1014.7 |
| 20260905134003 | 70 | 184 | 1.0 | 4.0 | 0.00 | 0.54 | 0.18 | 82 | 1014.7 |
| 20260905133803 | 70 | 185 | 1.0 | 4.0 | 0.00 | 0.54 | 0.18 | 82 | 1014.7 |
| 20260905133603 | 69 | 186 | 2.0 | 5.0 | 0.00 | 0.54 | 0.18 | 82 | 1014.7 |
| 20260905133403 | 69 | 186 | 2.0 | 5.0 | 0.00 | 0.54 | 0.18 | 82 | 1014.7 |
| 20260905133203 | 69 | 185 | 2.0 | 5.0 | 0.00 | 0.54 | 0.18 | 82 | 1014.7 |
| 20260905133024 | 69 | 184 | 2.0 | 5.0 | 0.00 | 0.54 | 0.18 | 82 | 1014.7 |
| 20260905132803 | 69 | 183 | 2.0 | 5.0 | 0.00 | 0.54 | 0.18 | 82 | 1014.7 |
| 20260905132603 | 69 | 182 | 2.0 | 5.0 | 0.00 | 0.54 | 0.18 | 82 | 1014.7 |
| 20260905132424 | 69 | 181 | 2.0 | 5.0 | 0.00 | 0.54 | 0.18 | 82 | 1014.7 |
| 20260905132203 | 69 | 182 | 2.0 | 5.0 | 0.00 | 0.54 | 0.18 | 82 | 1014.7 |
| 20260905132003 | 69 | 184 | 2.0 | 5.0 | 0.00 | 0.54 | 0.18 | 82 | 1014.7 |
| 20260905131803 | 69 | 185 | 1.0 | 5.0 | 0.00 | 0.54 | 0.18 | 82 | 1014.7 |
| 20260905131603 | 69 | 186 | 1.0 | 4.0 | 0.00 | 0.54 | 0.18 | 82 | 1014.7 |
| 20260905131403 | 69 | 188 | 1.0 | 5.0 | 0.00 | 0.54 | 0.18 | 82 | 1014.7 |
| 20260905131203 | 69 | 188 | 1.0 | 7.0 | 0.00 | 0.54 | 0.18 | 82 | 1014.7 |
| 20260905131003 | 69 | 188 | 1.0 | 7.0 | 0.00 | 0.54 | 0.18 | 82 | 1014.7 |
| 20260905130803 | 69 | 184 | 2.0 | 7.0 | 0.00 | 0.54 | 0.18 | 82 | 1014.7 |
| 20260905130624 | 69 | 184 | 2.0 | 7.0 | 0.00 | 0.54 | 0.18 | 82 | 1014.7 |
| 20260905130403 | 69 | 184 | 2.0 | 7.0 | 0.00 | 0.54 | 0.18 | 82 | 1014.7 |
| 20260905130203 | 69 | 183 | 3.0 | 7.0 | 0.00 | 0.54 | 0.18 | 82 | 1014.8 |
| 20260905130003 | 69 | 184 | 4.0 | 7.0 | 0.00 | 0.55 | 0.18 | 82 | 1014.8 |
| 20260905125803 | 69 | 186 | 4.0 | 7.0 | 0.00 | 0.55 | 0.18 | 82 | 1014.8 |
| 20260905125603 | 69 | 187 | 3.0 | 7.0 | 0.00 | 0.55 | 0.18 | 82 | 1014.8 |
| 20260905125403 | 69 | 186 | 4.0 | 9.0 | 0.00 | 0.55 | 0.18 | 82 | 1014.8 |
| 20260905125203 | 69 | 182 | 4.0 | 9.0 | 0.00 | 0.55 | 0.18 | 82 | 1014.8 |
| 20260905125003 | 69 | 182 | 3.0 | 9.0 | 0.00 | 0.55 | 0.18 | 82 | 1014.8 |
| 20260905124803 | 69 | 179 | 4.0 | 9.0 | 0.00 | 0.55 | 0.18 | 82 | 1014.8 |
| 20260905124603 | 69 | 177 | 3.0 | 9.0 | 0.00 | 0.55 | 0.18 | 82 | 1014.8 |
| 20260905124403 | 69 | 174 | 2.0 | 8.0 | 0.00 | 0.55 | 0.18 | 82 | 1014.7 |
| 20260905124203 | 69 | 181 | 2.0 | 8.0 | 0.00 | 0.55 | 0.18 | 82 | 1014.7 |
| 20260905124003 | 69 | 180 | 2.0 | 6.0 | 0.00 | 0.55 | 0.18 | 82 | 1014.7 |
| 20260905123803 | 69 | 183 | 2.0 | 6.0 | 0.00 | 0.57 | 0.18 | 82 | 1014.7 |
| 20260905123603 | 69 | 184 | 2.0 | 5.0 | 0.00 | 0.58 | 0.18 | 82 | 1014.7 |
| 20260905123403 | 69 | 182 | 3.0 | 5.0 | 0.00 | 0.59 | 0.18 | 82 | 1014.7 |
| 20260905123203 | 69 | 180 | 3.0 | 5.0 | 0.00 | 0.59 | 0.18 | 82 | 1014.7 |
| 20260905123003 | 69 | 180 | 3.0 | 7.0 | 0.00 | 0.59 | 0.18 | 82 | 1014.7 |
| 20260905122803 | 69 | 180 | 3.0 | 7.0 | 0.00 | 0.59 | 0.18 | 82 | 1014.6 |
| 20260905122603 | 69 | 181 | 3.0 | 7.0 | 0.00 | 0.59 | 0.18 | 82 | 1014.6 |
| 20260905122403 | 69 | 183 | 3.0 | 7.0 | 0.00 | 0.59 | 0.18 | 82 | 1014.6 |
| 20260905122224 | 69 | 183 | 3.0 | 7.0 | 0.00 | 0.59 | 0.18 | 82 | 1014.6 |
| 20260905122003 | 68 | 182 | 3.0 | 7.0 | 0.00 | 0.59 | 0.18 | 82 | 1014.6 |
| 20260905121824 | 68 | 183 | 3.0 | 7.0 | 0.00 | 0.59 | 0.18 | 82 | 1014.5 |
| 20260905121603 | 68 | 183 | 2.0 | 6.0 | 0.00 | 0.59 | 0.18 | 82 | 1014.5 |
| 20260905121403 | 68 | 182 | 1.0 | 6.0 | 0.00 | 0.59 | 0.18 | 82 | 1014.5 |
| 20260905121203 | 68 | 181 | 1.0 | 4.0 | 0.00 | 0.59 | 0.18 | 82 | 1014.3 |
| 20260905121003 | 68 | 183 | 0.0 | 3.0 | 0.00 | 0.59 | 0.18 | 82 | 1014.3 |
| 20260905120804 | 68 | 183 | 0.0 | 3.0 | 0.00 | 0.59 | 0.18 | 82 | 1014.3 |
| 20260905120603 | 68 | 0 | 0.0 | 0.0 | 0.00 | 0.59 | 0.18 | 82 | 1014.2 |
| 20260905120424 | 68 | 0 | 0.0 | 0.0 | 0.00 | 0.59 | 0.18 | 82 | 1014.2 |
| 20260905120203 | 68 | 0 | 0.0 | 0.0 | 0.00 | 0.59 | 0.18 | 82 | 1014.1 |
| 20260905120024 | 68 | 0 | 0.0 | 0.0 | 0.00 | 0.59 | 0.18 | 82 | 1014.0 |
| 20260905115803 | 68 | 183 | 0.0 | 2.0 | 0.00 | 0.59 | 0.18 | 82 | 1014.0 |
| 20260905115603 | 68 | 183 | 0.0 | 3.0 | 0.00 | 0.59 | 0.18 | 82 | 1014.0 |
| 20260905115424 | 68 | 183 | 0.0 | 3.0 | 0.00 | 0.59 | 0.18 | 82 | 1014.0 |
| 20260905115203 | 68 | 183 | 0.0 | 3.0 | 0.00 | 0.59 | 0.18 | 82 | 1014.0 |
| 20260905115003 | 68 | 183 | 0.0 | 3.0 | 0.00 | 0.59 | 0.18 | 82 | 1013.9 |
| 20260905114803 | 68 | 183 | 0.0 | 3.0 | 0.00 | 0.59 | 0.18 | 82 | 1014.0 |
| 20260905114603 | 68 | 0 | 0.0 | 0.0 | 0.00 | 0.59 | 0.18 | 82 | 1013.9 |
| 20260905114424 | 68 | 0 | 0.0 | 0.0 | 0.00 | 0.59 | 0.18 | 82 | 1014.0 |
| 20260905114203 | 68 | 0 | 0.0 | 0.0 | 0.00 | 0.59 | 0.18 | 82 | 1013.9 |
| 20260905114003 | 68 | 0 | 0.0 | 0.0 | 0.00 | 0.59 | 0.18 | 82 | 1013.9 |
| 20260905113803 | 68 | 0 | 0.0 | 0.0 | 0.00 | 0.59 | 0.18 | 82 | 1014.0 |
| 20260905113603 | 68 | 0 | 0.0 | 0.0 | 0.00 | 0.59 | 0.18 | 82 | 1014.0 |
| 20260905113403 | 68 | 0 | 0.0 | 0.0 | 0.00 | 0.59 | 0.18 | 82 | 1013.9 |
| 20260905113203 | 68 | 0 | 0.0 | 0.0 | 0.00 | 0.59 | 0.18 | 82 | 1013.9 |
| 20260905113003 | 68 | 188 | 0.0 | 2.0 | 0.00 | 0.59 | 0.18 | 82 | 1013.9 |
| 20260905112803 | 68 | 188 | 0.0 | 2.0 | 0.00 | 0.59 | 0.18 | 81 | 1013.9 |
| 20260905112603 | 68 | 187 | 1.0 | 2.0 | 0.00 | 0.59 | 0.18 | 82 | 1013.9 |
| 20260905112403 | 68 | 187 | 1.0 | 3.0 | 0.00 | 0.59 | 0.18 | 81 | 1013.9 |
| 20260905112203 | 68 | 187 | 1.0 | 3.0 | 0.00 | 0.59 | 0.18 | 81 | 1013.8 |
| 20260905112003 | 68 | 187 | 1.0 | 3.0 | 0.00 | 0.59 | 0.18 | 81 | 1013.8 |
| 20260905111824 | 68 | 187 | 1.0 | 3.0 | 0.00 | 0.59 | 0.18 | 81 | 1013.7 |
| 20260905111624 | 68 | 187 | 0.0 | 3.0 | 0.00 | 0.59 | 0.18 | 82 | 1013.6 |
| 20260905111403 | 68 | 187 | 0.0 | 3.0 | 0.00 | 0.59 | 0.18 | 82 | 1013.6 |
| 20260905111203 | 68 | 176 | 0.0 | 2.0 | 0.00 | 0.59 | 0.18 | 82 | 1013.5 |
| 20260905111003 | 68 | 176 | 0.0 | 2.0 | 0.00 | 0.59 | 0.18 | 81 | 1013.5 |
| 20260905110803 | 68 | 176 | 0.0 | 2.0 | 0.00 | 0.59 | 0.18 | 81 | 1013.4 |
| 20260905110603 | 68 | 176 | 0.0 | 2.0 | 0.00 | 0.59 | 0.18 | 81 | 1013.4 |
| 20260905110403 | 68 | 176 | 0.0 | 2.0 | 0.00 | 0.59 | 0.18 | 81 | 1013.4 |
| 20260905110224 | 68 | 176 | 1.0 | 2.0 | 0.00 | 0.59 | 0.18 | 81 | 1013.4 |
| 20260905110003 | 68 | 176 | 1.0 | 3.0 | 0.00 | 0.59 | 0.18 | 81 | 1013.4 |
| 20260905105824 | 68 | 176 | 1.0 | 3.0 | 0.00 | 0.59 | 0.18 | 81 | 1013.3 |
| 20260905105603 | 68 | 177 | 1.0 | 4.0 | 0.00 | 0.59 | 0.18 | 81 | 1013.3 |
| 20260905105403 | 68 | 179 | 1.0 | 4.0 | 0.00 | 0.59 | 0.18 | 81 | 1013.3 |
| 20260905105203 | 68 | 181 | 1.0 | 4.0 | 0.00 | 0.59 | 0.18 | 81 | 1013.3 |
| 20260905105003 | 68 | 183 | 1.0 | 4.0 | 0.00 | 0.59 | 0.18 | 81 | 1013.4 |
| 20260905104803 | 68 | 186 | 1.0 | 4.0 | 0.00 | 0.59 | 0.18 | 81 | 1013.4 |
| 20260905104603 | 68 | 188 | 1.0 | 4.0 | 0.00 | 0.59 | 0.18 | 81 | 1013.3 |
| 20260905104403 | 68 | 189 | 1.0 | 4.0 | 0.00 | 0.59 | 0.18 | 81 | 1013.4 |
| 20260905104203 | 68 | 189 | 1.0 | 4.0 | 0.00 | 0.59 | 0.18 | 81 | 1013.3 |
| 20260905104003 | 68 | 187 | 1.0 | 4.0 | 0.00 | 0.59 | 0.18 | 81 | 1013.4 |
| 20260905103803 | 68 | 187 | 2.0 | 4.0 | 0.00 | 0.59 | 0.18 | 81 | 1013.3 |
| 20260905103603 | 68 | 185 | 2.0 | 4.0 | 0.00 | 0.59 | 0.18 | 81 | 1013.3 |
| 20260905103403 | 68 | 180 | 2.0 | 4.0 | 0.00 | 0.59 | 0.18 | 81 | 1013.4 |
| 20260905103203 | 68 | 179 | 3.0 | 4.0 | 0.00 | 0.59 | 0.18 | 80 | 1013.4 |
| 20260905103003 | 68 | 178 | 2.0 | 5.0 | 0.00 | 0.59 | 0.18 | 80 | 1013.3 |
| 20260905102803 | 68 | 176 | 2.0 | 5.0 | 0.00 | 0.59 | 0.18 | 80 | 1013.4 |
| 20260905102603 | 68 | 175 | 1.0 | 5.0 | 0.00 | 0.59 | 0.18 | 80 | 1013.3 |
| 20260905102403 | 68 | 178 | 1.0 | 5.0 | 0.00 | 0.59 | 0.18 | 80 | 1013.3 |
| 20260905102203 | 68 | 179 | 0.0 | 5.0 | 0.00 | 0.59 | 0.18 | 80 | 1013.3 |
| 20260905102003 | 68 | 0 | 0.0 | 0.0 | 0.00 | 0.59 | 0.18 | 80 | 1013.2 |
| 20260905101803 | 68 | 0 | 0.0 | 0.0 | 0.00 | 0.59 | 0.18 | 80 | 1013.2 |
| 20260905101603 | 68 | 0 | 0.0 | 0.0 | 0.00 | 0.59 | 0.18 | 79 | 1013.2 |
| 20260905101424 | 68 | 0 | 0.0 | 0.0 | 0.00 | 0.59 | 0.18 | 79 | 1013.2 |
| 20260905101203 | 68 | 0 | 0.0 | 0.0 | 0.00 | 0.59 | 0.18 | 79 | 1013.1 |
| 20260905101003 | 68 | 0 | 0.0 | 0.0 | 0.00 | 0.59 | 0.18 | 79 | 1013.1 |
| 20260905100824 | 68 | 0 | 0.0 | 0.0 | 0.00 | 0.59 | 0.18 | 79 | 1013.1 |
| 20260905100603 | 68 | 0 | 0.0 | 0.0 | 0.00 | 0.59 | 0.18 | 79 | 1013.1 |
| 20260905100403 | 68 | 0 | 0.0 | 0.0 | 0.00 | 0.59 | 0.18 | 79 | 1013.1 |
| 20260905100203 | 68 | 0 | 0.0 | 0.0 | 0.00 | 0.59 | 0.18 | 79 | 1013.0 |
| 20260905100003 | 69 | 0 | 0.0 | 0.0 | 0.00 | 0.59 | 0.18 | 79 | 1013.1 |
| 20260905095803 | 69 | 0 | 0.0 | 0.0 | 0.00 | 0.59 | 0.18 | 79 | 1013.0 |
| 20260905095603 | 69 | 0 | 0.0 | 0.0 | 0.00 | 0.59 | 0.18 | 79 | 1013.1 |
| 20260905095403 | 69 | 0 | 0.0 | 0.0 | 0.00 | 0.59 | 0.18 | 79 | 1013.1 |
| 20260905095203 | 69 | 0 | 0.0 | 0.0 | 0.00 | 0.59 | 0.18 | 79 | 1013.1 |
| 20260905095003 | 69 | 0 | 0.0 | 0.0 | 0.00 | 0.59 | 0.18 | 79 | 1013.2 |
| 20260905094803 | 69 | 0 | 0.0 | 0.0 | 0.00 | 0.59 | 0.18 | 79 | 1013.3 |
| 20260905094603 | 69 | 0 | 0.0 | 0.0 | 0.00 | 0.59 | 0.18 | 79 | 1013.3 |
| 20260905094424 | 69 | 0 | 0.0 | 0.0 | 0.00 | 0.59 | 0.18 | 79 | 1013.4 |
| 20260905094203 | 69 | 0 | 0.0 | 0.0 | 0.00 | 0.59 | 0.18 | 79 | 1013.4 |
| 20260905094003 | 69 | 0 | 0.0 | 0.0 | 0.00 | 0.59 | 0.18 | 79 | 1013.5 |
| 20260905093803 | 69 | 0 | 0.0 | 0.0 | 0.00 | 0.59 | 0.18 | 79 | 1013.5 |
| 20260905093603 | 70 | 0 | 0.0 | 0.0 | 0.00 | 0.59 | 0.18 | 79 | 1013.5 |
| 20260905093403 | 70 | 0 | 0.0 | 0.0 | 0.00 | 0.59 | 0.18 | 79 | 1013.5 |
| 20260905093224 | 70 | 0 | 0.0 | 0.0 | 0.00 | 0.59 | 0.18 | 79 | 1013.5 |
| 20260905093003 | 70 | 0 | 0.0 | 0.0 | 0.00 | 0.59 | 0.18 | 79 | 1013.5 |
| 20260905092803 | 69 | 0 | 0.0 | 0.0 | 0.00 | 0.59 | 0.18 | 79 | 1013.5 |
| 20260905092603 | 69 | 0 | 0.0 | 0.0 | 0.00 | 0.59 | 0.18 | 79 | 1013.5 |
| 20260905092403 | 70 | 0 | 0.0 | 0.0 | 0.00 | 0.59 | 0.18 | 79 | 1013.4 |
| 20260905092203 | 69 | 0 | 0.0 | 0.0 | 0.00 | 0.59 | 0.18 | 79 | 1013.4 |
| 20260905092003 | 69 | 0 | 0.0 | 0.0 | 0.00 | 0.59 | 0.18 | 78 | 1013.4 |
| 20260905091803 | 69 | 0 | 0.0 | 0.0 | 0.00 | 0.59 | 0.18 | 78 | 1013.4 |
| 20260905091624 | 69 | 0 | 0.0 | 0.0 | 0.00 | 0.59 | 0.18 | 78 | 1013.5 |
| 20260905091403 | 69 | 0 | 0.0 | 0.0 | 0.00 | 0.59 | 0.18 | 78 | 1013.5 |
| 20260905091203 | 69 | 0 | 0.0 | 0.0 | 0.00 | 0.59 | 0.18 | 78 | 1013.5 |
| 20260905091024 | 69 | 0 | 0.0 | 0.0 | 0.00 | 0.59 | 0.18 | 78 | 1013.6 |
| 20260905090824 | 70 | 0 | 0.0 | 0.0 | 0.00 | 0.59 | 0.18 | 78 | 1013.6 |
| 20260905090603 | 70 | 0 | 0.0 | 0.0 | 0.00 | 0.59 | 0.18 | 78 | 1013.6 |
| 20260905090403 | 70 | 0 | 0.0 | 0.0 | 0.00 | 0.59 | 0.18 | 78 | 1013.7 |
| 20260905090203 | 70 | 0 | 0.0 | 0.0 | 0.00 | 0.59 | 0.18 | 78 | 1013.7 |
| 20260905090003 | 70 | 0 | 0.0 | 0.0 | 0.00 | 0.59 | 0.18 | 78 | 1013.7 |
| 20260905085803 | 70 | 0 | 0.0 | 0.0 | 0.00 | 0.59 | 0.18 | 78 | 1013.7 |
| 20260905085624 | 70 | 0 | 0.0 | 0.0 | 0.00 | 0.59 | 0.18 | 78 | 1013.7 |
| 20260905085403 | 70 | 0 | 0.0 | 0.0 | 0.00 | 0.59 | 0.18 | 78 | 1013.7 |
| 20260905085203 | 70 | 0 | 0.0 | 0.0 | 0.00 | 0.59 | 0.18 | 78 | 1013.8 |
| 20260905085003 | 70 | 0 | 0.0 | 0.0 | 0.01 | 0.59 | 0.18 | 78 | 1013.8 |
| 20260905084803 | 70 | 0 | 0.0 | 0.0 | 0.01 | 0.59 | 0.18 | 78 | 1013.9 |
| 20260905084603 | 70 | 0 | 0.0 | 0.0 | 0.01 | 0.59 | 0.18 | 78 | 1013.9 |
| 20260905084403 | 70 | 0 | 0.0 | 0.0 | 0.01 | 0.59 | 0.18 | 78 | 1013.9 |
| 20260905084203 | 70 | 0 | 0.0 | 0.0 | 0.01 | 0.59 | 0.18 | 78 | 1013.8 |
| 20260905084003 | 70 | 0 | 0.0 | 0.0 | 0.01 | 0.59 | 0.18 | 78 | 1013.8 |
| 20260905083824 | 70 | 0 | 0.0 | 0.0 | 0.01 | 0.59 | 0.18 | 78 | 1013.7 |
| 20260905083603 | 70 | 0 | 0.0 | 0.0 | 0.01 | 0.59 | 0.18 | 78 | 1013.7 |
| 20260905083403 | 70 | 0 | 0.0 | 0.0 | 0.01 | 0.59 | 0.18 | 79 | 1013.5 |
| 20260905083203 | 70 | 0 | 0.0 | 0.0 | 0.01 | 0.59 | 0.18 | 79 | 1013.5 |
| 20260905083003 | 70 | 0 | 0.0 | 0.0 | 0.01 | 0.59 | 0.18 | 79 | 1013.6 |
| 20260905082803 | 70 | 0 | 0.0 | 0.0 | 0.01 | 0.59 | 0.18 | 79 | 1013.6 |
| 20260905082624 | 70 | 0 | 0.0 | 0.0 | 0.01 | 0.59 | 0.18 | 79 | 1013.6 |
| 20260905082403 | 70 | 0 | 0.0 | 0.0 | 0.01 | 0.59 | 0.18 | 79 | 1013.6 |
| 20260905082203 | 70 | 0 | 0.0 | 0.0 | 0.01 | 0.59 | 0.18 | 79 | 1013.6 |
| 20260905082003 | 70 | 0 | 0.0 | 0.0 | 0.01 | 0.59 | 0.18 | 79 | 1013.5 |
| 20260905081803 | 70 | 0 | 0.0 | 0.0 | 0.01 | 0.59 | 0.18 | 79 | 1013.5 |
| 20260905081624 | 70 | 0 | 0.0 | 0.0 | 0.01 | 0.59 | 0.18 | 79 | 1013.5 |
| 20260905081424 | 70 | 0 | 0.0 | 0.0 | 0.01 | 0.59 | 0.18 | 79 | 1013.4 |
| 20260905081203 | 70 | 185 | 1.0 | 4.0 | 0.01 | 0.59 | 0.18 | 79 | 1013.4 |
| 20260905081003 | 70 | 183 | 1.0 | 4.0 | 0.01 | 0.59 | 0.18 | 79 | 1013.4 |
| 20260905080803 | 70 | 183 | 1.0 | 4.0 | 0.01 | 0.59 | 0.18 | 79 | 1013.4 |
| 20260905080624 | 70 | 183 | 1.0 | 4.0 | 0.01 | 0.59 | 0.18 | 79 | 1013.3 |
| 20260905080403 | 70 | 183 | 1.0 | 4.0 | 0.01 | 0.59 | 0.18 | 78 | 1013.2 |
| 20260905080203 | 70 | 178 | 0.0 | 4.0 | 0.01 | 0.59 | 0.18 | 79 | 1013.1 |
| 20260905080003 | 70 | 0 | 0.0 | 0.0 | 0.01 | 0.59 | 0.18 | 79 | 1013.1 |
| 20260905075803 | 70 | 0 | 0.0 | 0.0 | 0.01 | 0.59 | 0.18 | 79 | 1013.0 |
| 20260905075603 | 70 | 0 | 0.0 | 0.0 | 0.01 | 0.59 | 0.18 | 79 | 1012.8 |
| 20260905075403 | 70 | 0 | 0.0 | 0.0 | 0.01 | 0.59 | 0.18 | 79 | 1012.7 |
| 20260905075203 | 70 | 0 | 0.0 | 0.0 | 0.01 | 0.59 | 0.18 | 79 | 1012.7 |
| 20260905075003 | 70 | 165 | 0.0 | 2.0 | 0.00 | 0.58 | 0.17 | 79 | 1012.7 |
| 20260905074824 | 70 | 165 | 0.0 | 2.0 | 0.01 | 0.58 | 0.17 | 79 | 1012.6 |
| 20260905074603 | 70 | 165 | 1.0 | 2.0 | 0.01 | 0.58 | 0.17 | 78 | 1012.6 |
| 20260905074403 | 70 | 165 | 1.0 | 2.0 | 0.02 | 0.58 | 0.17 | 78 | 1012.6 |
| 20260905074203 | 70 | 165 | 1.0 | 2.0 | 0.02 | 0.58 | 0.17 | 78 | 1012.7 |
| 20260905074003 | 70 | 167 | 1.0 | 3.0 | 0.02 | 0.58 | 0.17 | 77 | 1012.6 |
| 20260905073803 | 70 | 167 | 1.0 | 3.0 | 0.02 | 0.58 | 0.17 | 77 | 1012.6 |
| 20260905073603 | 70 | 174 | 1.0 | 3.0 | 0.02 | 0.58 | 0.17 | 77 | 1012.6 |
| 20260905073403 | 70 | 179 | 2.0 | 5.0 | 0.02 | 0.58 | 0.17 | 77 | 1012.6 |
| 20260905073203 | 70 | 178 | 2.0 | 5.0 | 0.02 | 0.58 | 0.17 | 77 | 1012.6 |
| 20260905073003 | 70 | 177 | 2.0 | 5.0 | 0.02 | 0.58 | 0.17 | 77 | 1012.8 |
| 20260905072824 | 70 | 180 | 2.0 | 5.0 | 0.02 | 0.58 | 0.17 | 77 | 1012.8 |
| 20260905072603 | 70 | 180 | 2.0 | 5.0 | 0.02 | 0.58 | 0.17 | 77 | 1013.1 |
| 20260905072403 | 70 | 179 | 1.0 | 4.0 | 0.02 | 0.58 | 0.17 | 77 | 1013.1 |
| 20260905072203 | 70 | 181 | 1.0 | 3.0 | 0.02 | 0.58 | 0.17 | 77 | 1013.2 |
| 20260905072003 | 70 | 188 | 0.0 | 3.0 | 0.02 | 0.58 | 0.17 | 77 | 1013.2 |
| 20260905071803 | 70 | 186 | 0.0 | 3.0 | 0.02 | 0.58 | 0.17 | 77 | 1013.2 |
| 20260905071603 | 70 | 183 | 1.0 | 4.0 | 0.02 | 0.58 | 0.17 | 77 | 1013.2 |
| 20260905071403 | 70 | 184 | 1.0 | 4.0 | 0.03 | 0.58 | 0.17 | 77 | 1013.1 |
| 20260905071203 | 70 | 185 | 1.0 | 4.0 | 0.03 | 0.58 | 0.17 | 77 | 1013.1 |
| 20260905071003 | 70 | 186 | 2.0 | 5.0 | 0.03 | 0.58 | 0.17 | 77 | 1013.1 |
| 20260905070803 | 70 | 186 | 1.0 | 5.0 | 0.03 | 0.58 | 0.17 | 77 | 1013.1 |
| 20260905070603 | 70 | 187 | 1.0 | 5.0 | 0.04 | 0.58 | 0.17 | 77 | 1013.2 |
| 20260905070403 | 71 | 188 | 1.0 | 5.0 | 0.04 | 0.58 | 0.17 | 77 | 1013.3 |
| 20260905070203 | 71 | 189 | 0.0 | 5.0 | 0.04 | 0.58 | 0.17 | 76 | 1013.3 |
| 20260905070003 | 71 | 186 | 0.0 | 3.0 | 0.04 | 0.58 | 0.17 | 77 | 1013.2 |
| 20260905065803 | 71 | 0 | 0.0 | 0.0 | 0.04 | 0.58 | 0.17 | 77 | 1013.4 |
| 20260905065624 | 71 | 0 | 0.0 | 0.0 | 0.04 | 0.58 | 0.17 | 77 | 1013.5 |
| 20260905065424 | 71 | 0 | 0.0 | 0.0 | 0.04 | 0.58 | 0.17 | 77 | 1013.6 |
| 20260905065224 | 71 | 0 | 0.0 | 0.0 | 0.04 | 0.58 | 0.17 | 77 | 1013.6 |
| 20260905065003 | 71 | 0 | 0.0 | 0.0 | 0.04 | 0.58 | 0.17 | 77 | 1013.8 |
| 20260905064803 | 71 | 50 | 0.0 | 3.0 | 0.03 | 0.57 | 0.16 | 76 | 1014.2 |
| 20260905064603 | 70 | 45 | 0.0 | 3.0 | 0.03 | 0.57 | 0.16 | 76 | 1014.3 |
| 20260905064424 | 71 | 75 | 1.0 | 4.0 | 0.02 | 0.56 | 0.16 | 76 | 1014.5 |
| 20260905064224 | 71 | 58 | 1.0 | 4.0 | 0.02 | 0.56 | 0.15 | 76 | 1014.7 |
| 20260905064003 | 71 | 54 | 1.0 | 4.0 | 0.02 | 0.56 | 0.15 | 75 | 1015.0 |
| 20260905063803 | 71 | 42 | 1.0 | 4.0 | 0.02 | 0.56 | 0.15 | 75 | 1015.0 |
| 20260905063603 | 71 | 41 | 1.0 | 4.0 | 0.02 | 0.56 | 0.15 | 75 | 1015.0 |
| 20260905063403 | 71 | 19 | 1.0 | 4.0 | 0.02 | 0.56 | 0.15 | 75 | 1015.1 |
| 20260905063203 | 71 | 14 | 0.0 | 4.0 | 0.02 | 0.56 | 0.15 | 75 | 1015.1 |
| 20260905063003 | 71 | 2 | 0.0 | 4.0 | 0.02 | 0.56 | 0.15 | 75 | 1015.1 |
| 20260905062803 | 71 | 359 | 0.0 | 2.0 | 0.02 | 0.56 | 0.15 | 75 | 1015.0 |
| 20260905062603 | 71 | 0 | 0.0 | 0.0 | 0.02 | 0.56 | 0.15 | 75 | 1015.0 |
| 20260905062403 | 71 | 0 | 0.0 | 0.0 | 0.02 | 0.56 | 0.15 | 75 | 1015.0 |
| 20260905062203 | 71 | 0 | 0.0 | 0.0 | 0.02 | 0.56 | 0.15 | 75 | 1014.7 |
| 20260905062003 | 71 | 0 | 0.0 | 0.0 | 0.02 | 0.56 | 0.15 | 76 | 1014.3 |
| 20260905061803 | 71 | 0 | 0.0 | 0.0 | 0.03 | 0.56 | 0.15 | 75 | 1014.1 |
| 20260905061603 | 71 | 0 | 0.0 | 0.0 | 0.03 | 0.56 | 0.15 | 75 | 1013.6 |
| 20260905061403 | 71 | 0 | 0.0 | 0.0 | 0.02 | 0.55 | 0.14 | 75 | 1013.2 |
| 20260905061203 | 71 | 0 | 0.0 | 0.0 | 0.02 | 0.55 | 0.14 | 75 | 1013.2 |
| 20260905061003 | 71 | 0 | 0.0 | 0.0 | 0.02 | 0.55 | 0.14 | 74 | 1013.4 |
| 20260905060803 | 71 | 0 | 0.0 | 0.0 | 0.02 | 0.55 | 0.14 | 75 | 1013.5 |
| 20260905060603 | 71 | 0 | 0.0 | 0.0 | 0.01 | 0.54 | 0.13 | 75 | 1013.5 |
| 20260905060403 | 71 | 0 | 0.0 | 0.0 | 0.01 | 0.54 | 0.13 | 74 | 1013.7 |
| 20260905060203 | 71 | 0 | 0.0 | 0.0 | 0.01 | 0.54 | 0.13 | 75 | 1013.9 |
| 20260905060003 | 71 | 0 | 0.0 | 0.0 | 0.02 | 0.54 | 0.13 | 75 | 1014.2 |
| 20260905055803 | 71 | 0 | 0.0 | 0.0 | 0.03 | 0.54 | 0.13 | 75 | 1014.3 |
| 20260905055603 | 71 | 0 | 0.0 | 0.0 | 0.05 | 0.54 | 0.13 | 75 | 1014.2 |
| 20260905055424 | 71 | 0 | 0.0 | 0.0 | 0.07 | 0.54 | 0.13 | 75 | 1014.2 |
| 20260905055203 | 71 | 0 | 0.0 | 0.0 | 0.08 | 0.54 | 0.13 | 75 | 1014.2 |
| 20260905055024 | 71 | 0 | 0.0 | 0.0 | 0.09 | 0.54 | 0.13 | 74 | 1014.2 |
| 20260905054824 | 71 | 0 | 0.0 | 0.0 | 0.09 | 0.54 | 0.13 | 74 | 1014.2 |
| 20260905054603 | 71 | 0 | 0.0 | 0.0 | 0.11 | 0.54 | 0.13 | 74 | 1014.0 |
| 20260905054403 | 71 | 0 | 0.0 | 0.0 | 0.11 | 0.54 | 0.13 | 74 | 1013.9 |
| 20260905054245 | 71 | 0 | 0.0 | 0.0 | 0.11 | 0.54 | 0.13 | 74 | 1013.9 |
| 20260905054024 | 71 | 0 | 0.0 | 0.0 | 0.11 | 0.54 | 0.13 | 74 | 1014.1 |
| 20260905053803 | 71 | 0 | 0.0 | 0.0 | 0.11 | 0.54 | 0.13 | 74 | 1014.1 |